CRL659 LFPO-TFFF

Flight info

Callsign CRL659
Flight time 8h 55m
Altitude FL330
Route LGL2R LGL UT176 ROLEN UZ15 DIDAK AKEMO RIVAK SIVIR PASAS 42N020W 35N030W 28N040W 22N050W 19N055W ELJEZ UN669 OTUSU UMAMU UMAM2D
Aircraft A339/H-SADE1E2E3GHIJ3J5M1P2RWXY/LB2D1

Departure

Time 2026-05-07 07:16
Airport Paris-Orly Airport (LFPO)

Arrival

Time 2026-05-07 16:11
Airport Martinique Aimé Césaire International Airport (TFFF)
Time Latitude Longitude Altitude Speed Heading
2026-05-07 06:54 48.72541 2.36022 295 ft 0 kts 13°
2026-05-07 07:06 48.72529 2.36022 295 ft 2 kts 334°
2026-05-07 07:07 48.72516 2.36033 295 ft 2 kts 329°
2026-05-07 07:07 48.72504 2.36046 294 ft 2 kts 309°
2026-05-07 07:07 48.72496 2.36065 293 ft 2 kts 291°
2026-05-07 07:07 48.72492 2.36087 293 ft 2 kts 274°
2026-05-07 07:08 48.72492 2.36109 292 ft 2 kts 256°
2026-05-07 07:08 48.72494 2.36119 292 ft 1 kts 249°
2026-05-07 07:08 48.72495 2.36122 292 ft 0 kts 250°
2026-05-07 07:10 48.72495 2.36121 292 ft 1 kts 250°
2026-05-07 07:10 48.72490 2.36102 292 ft 2 kts 247°
2026-05-07 07:11 48.72483 2.36075 293 ft 4 kts 248°
2026-05-07 07:11 48.72470 2.36002 293 ft 9 kts 261°
2026-05-07 07:11 48.72471 2.35901 293 ft 10 kts 276°
2026-05-07 07:11 48.72473 2.35771 289 ft 14 kts 263°
2026-05-07 07:12 48.72443 2.35629 287 ft 8 kts 223°
2026-05-07 07:12 48.72400 2.35626 289 ft 6 kts 168°
2026-05-07 07:12 48.72370 2.35636 290 ft 3 kts 171°
2026-05-07 07:12 48.72351 2.35635 291 ft 3 kts 186°
2026-05-07 07:13 48.72313 2.35625 292 ft 8 kts 193°
2026-05-07 07:13 48.72253 2.35607 293 ft 9 kts 185°
2026-05-07 07:13 48.72189 2.35619 294 ft 10 kts 167°
2026-05-07 07:13 48.72144 2.35636 293 ft 11 kts 163°
2026-05-07 07:14 48.72070 2.35687 291 ft 13 kts 143°
2026-05-07 07:14 48.72013 2.35797 290 ft 14 kts 119°
2026-05-07 07:14 48.71971 2.35926 292 ft 13 kts 102°
2026-05-07 07:14 48.71979 2.36053 294 ft 12 kts 75°
2026-05-07 07:15 48.72035 2.36354 296 ft 58 kts 75°
2026-05-07 07:15 48.72197 2.37236 300 ft 114 kts 75°
2026-05-07 07:15 48.72455 2.38635 298 ft 162 kts 75°
2026-05-07 07:15 48.72783 2.40423 554 ft 181 kts 73°
2026-05-07 07:16 48.73105 2.42225 1126 ft 180 kts 73°
2026-05-07 07:16 48.73439 2.44039 1690 ft 181 kts 72°
2026-05-07 07:16 48.73782 2.45869 2176 ft 185 kts 72°
2026-05-07 07:16 48.74113 2.47805 2438 ft 198 kts 77°
2026-05-07 07:17 48.74285 2.49937 2696 ft 213 kts 86°
2026-05-07 07:17 48.74308 2.52238 2971 ft 227 kts 88°
2026-05-07 07:17 48.74304 2.54715 3253 ft 242 kts 89°
2026-05-07 07:17 48.73973 2.57267 3511 ft 259 kts 116°
2026-05-07 07:18 48.72753 2.59289 3941 ft 269 kts 149°
2026-05-07 07:18 48.70985 2.60082 4548 ft 270 kts 180°
2026-05-07 07:18 48.69189 2.59405 5145 ft 271 kts 211°
2026-05-07 07:18 48.67878 2.57430 5704 ft 272 kts 243°
2026-05-07 07:19 48.67401 2.54711 6266 ft 272 kts 266°
2026-05-07 07:19 48.67269 2.51858 6856 ft 273 kts 265°
2026-05-07 07:19 48.67110 2.49016 7432 ft 274 kts 265°
2026-05-07 07:19 48.66929 2.46157 7974 ft 276 kts 264°
2026-05-07 07:20 48.66736 2.43273 8505 ft 279 kts 264°
2026-05-07 07:20 48.66415 2.40399 9039 ft 281 kts 256°
2026-05-07 07:20 48.65822 2.37594 9577 ft 283 kts 249°
2026-05-07 07:20 48.65089 2.34846 10111 ft 285 kts 248°
2026-05-07 07:21 48.64316 2.32054 10478 ft 294 kts 248°
2026-05-07 07:21 48.63520 2.29154 10714 ft 306 kts 249°
2026-05-07 07:21 48.62990 2.25999 10940 ft 318 kts 264°
2026-05-07 07:21 48.63016 2.22619 11170 ft 330 kts 277°
2026-05-07 07:22 48.63360 2.19147 11436 ft 341 kts 279°
2026-05-07 07:22 48.63741 2.15599 11902 ft 346 kts 279°
2026-05-07 07:22 48.64125 2.12035 12447 ft 348 kts 279°
2026-05-07 07:22 48.64508 2.08412 12989 ft 350 kts 279°
2026-05-07 07:23 48.64882 2.04795 13514 ft 352 kts 278°
2026-05-07 07:23 48.65251 2.01135 13951 ft 357 kts 278°
2026-05-07 07:23 48.65624 1.97397 14304 ft 365 kts 278°
2026-05-07 07:23 48.66001 1.93611 14795 ft 368 kts 278°
2026-05-07 07:24 48.66380 1.89794 15320 ft 370 kts 278°
2026-05-07 07:24 48.66759 1.85964 15845 ft 372 kts 278°
2026-05-07 07:24 48.67143 1.82073 16351 ft 375 kts 278°
2026-05-07 07:24 48.67524 1.78181 16827 ft 378 kts 278°
2026-05-07 07:25 48.68292 1.70308 17786 ft 384 kts 278°
2026-05-07 07:25 48.68678 1.66320 18254 ft 386 kts 278°
2026-05-07 07:25 48.69065 1.62306 18719 ft 389 kts 278°
2026-05-07 07:26 48.69452 1.58274 19190 ft 392 kts 278°
2026-05-07 07:26 48.69845 1.54177 19659 ft 394 kts 278°
2026-05-07 07:26 48.70238 1.50089 20118 ft 396 kts 278°
2026-05-07 07:26 48.70631 1.45981 20561 ft 398 kts 278°
2026-05-07 07:27 48.71027 1.41825 20986 ft 401 kts 278°
2026-05-07 07:27 48.71420 1.37667 21399 ft 403 kts 278°
2026-05-07 07:27 48.71815 1.33475 21798 ft 406 kts 278°
2026-05-07 07:27 48.72210 1.29254 22207 ft 408 kts 278°
2026-05-07 07:28 48.72608 1.24987 22602 ft 410 kts 278°
2026-05-07 07:28 48.73003 1.20733 22974 ft 412 kts 278°
2026-05-07 07:28 48.73399 1.16446 23345 ft 414 kts 278°
2026-05-07 07:28 48.73796 1.12137 23707 ft 416 kts 278°
2026-05-07 07:29 48.74194 1.07804 24067 ft 418 kts 278°
2026-05-07 07:29 48.74591 1.03455 24409 ft 420 kts 278°
2026-05-07 07:29 48.74989 0.99085 24745 ft 422 kts 278°
2026-05-07 07:29 48.75390 0.94649 25071 ft 425 kts 278°
2026-05-07 07:30 48.75789 0.90223 25389 ft 427 kts 278°
2026-05-07 07:30 48.76187 0.85779 25707 ft 428 kts 278°
2026-05-07 07:30 48.76585 0.81320 26019 ft 430 kts 278°
2026-05-07 07:30 48.76982 0.76849 26325 ft 432 kts 278°
2026-05-07 07:31 48.77379 0.72359 26610 ft 434 kts 278°
2026-05-07 07:31 48.77775 0.67843 26892 ft 436 kts 278°
2026-05-07 07:31 48.78175 0.63266 27177 ft 437 kts 278°
2026-05-07 07:31 48.78544 0.58713 27438 ft 439 kts 274°
2026-05-07 07:32 48.78302 0.54135 27636 ft 442 kts 257°
2026-05-07 07:32 48.77158 0.49825 27889 ft 445 kts 240°
2026-05-07 07:32 48.75290 0.46105 28145 ft 447 kts 230°
2026-05-07 07:32 48.73246 0.42559 28397 ft 449 kts 230°
2026-05-07 07:33 48.71212 0.39002 28630 ft 451 kts 231°
2026-05-07 07:33 48.69158 0.35383 28893 ft 452 kts 231°
2026-05-07 07:33 48.67129 0.31794 29211 ft 452 kts 230°
2026-05-07 07:33 48.65100 0.28201 29555 ft 451 kts 230°
2026-05-07 07:34 48.63072 0.24613 29830 ft 451 kts 230°
2026-05-07 07:34 48.61044 0.21030 30064 ft 452 kts 230°
2026-05-07 07:34 48.58946 0.17510 30298 ft 454 kts 227°
2026-05-07 07:34 48.56715 0.14153 30544 ft 455 kts 224°
2026-05-07 07:35 48.54343 0.10964 30785 ft 456 kts 221°
2026-05-07 07:35 48.51931 0.07896 31002 ft 457 kts 221°
2026-05-07 07:35 48.49505 0.04808 31050 ft 459 kts 221°
2026-05-07 07:36 48.44653 -0.01362 31051 ft 458 kts 221°
2026-05-07 07:36 48.39779 -0.07552 31052 ft 458 kts 221°
2026-05-07 07:37 48.34932 -0.13694 31056 ft 458 kts 221°
2026-05-07 07:37 48.30153 -0.19922 31046 ft 457 kts 225°
2026-05-07 07:38 48.25865 -0.26889 31049 ft 456 kts 232°
2026-05-07 07:38 48.22221 -0.34637 31048 ft 456 kts 240°
2026-05-07 07:39 48.19034 -0.42813 31052 ft 456 kts 241°
2026-05-07 07:39 48.15856 -0.50983 31050 ft 456 kts 240°
2026-05-07 07:40 48.12676 -0.59119 31049 ft 456 kts 241°
2026-05-07 07:40 48.09472 -0.67284 31052 ft 455 kts 240°
2026-05-07 07:41 48.06276 -0.75400 31060 ft 455 kts 240°
2026-05-07 07:41 48.03079 -0.83497 31054 ft 455 kts 240°
2026-05-07 07:42 47.99862 -0.91624 31049 ft 455 kts 240°
2026-05-07 07:42 47.96654 -0.99703 31046 ft 455 kts 240°
2026-05-07 07:43 47.93433 -1.07784 31050 ft 455 kts 240°
2026-05-07 07:43 47.90210 -1.15849 31054 ft 455 kts 240°
2026-05-07 07:44 47.86973 -1.23925 31047 ft 455 kts 240°
2026-05-07 07:44 47.83738 -1.31967 31050 ft 455 kts 240°
2026-05-07 07:45 47.80505 -1.39985 31045 ft 454 kts 240°
2026-05-07 07:45 47.77262 -1.48004 31039 ft 454 kts 239°
2026-05-07 07:46 47.74007 -1.56026 31036 ft 455 kts 240°
2026-05-07 07:46 47.70754 -1.64025 31034 ft 455 kts 239°
2026-05-07 07:47 47.67491 -1.72019 31029 ft 455 kts 239°
2026-05-07 07:47 47.64207 -1.80041 31027 ft 456 kts 239°
2026-05-07 07:48 47.60934 -1.88014 31026 ft 456 kts 239°
2026-05-07 07:48 47.57649 -1.95991 31022 ft 456 kts 239°
2026-05-07 07:49 47.54367 -2.03939 31018 ft 455 kts 239°
2026-05-07 07:49 47.51072 -2.11902 31012 ft 454 kts 239°
2026-05-07 07:50 47.47781 -2.19834 31012 ft 455 kts 239°
2026-05-07 07:50 47.44480 -2.27749 31012 ft 455 kts 238°
2026-05-07 07:51 47.41156 -2.35688 31012 ft 455 kts 238°
2026-05-07 07:51 47.37852 -2.43586 31008 ft 454 kts 239°
2026-05-07 07:52 47.34543 -2.51469 31007 ft 454 kts 238°
2026-05-07 07:52 47.31232 -2.59327 31005 ft 454 kts 238°
2026-05-07 07:53 47.27900 -2.67208 31004 ft 454 kts 238°
2026-05-07 07:53 47.24565 -2.75071 31003 ft 454 kts 238°
2026-05-07 07:54 47.21229 -2.82911 31002 ft 454 kts 238°
2026-05-07 07:54 47.17877 -2.90781 31002 ft 454 kts 238°
2026-05-07 07:55 47.14888 -2.98897 31002 ft 454 kts 244°
2026-05-07 07:55 47.12489 -3.07419 31001 ft 454 kts 250°
2026-05-07 07:56 47.10620 -3.16240 31002 ft 455 kts 253°
2026-05-07 07:56 47.08819 -3.25115 31001 ft 455 kts 253°
2026-05-07 07:57 47.07013 -3.33961 31000 ft 455 kts 253°
2026-05-07 07:57 47.05200 -3.42792 31002 ft 455 kts 253°
2026-05-07 07:58 47.03374 -3.51635 31002 ft 454 kts 253°
2026-05-07 07:58 47.01545 -3.60446 31001 ft 454 kts 253°
2026-05-07 07:59 46.99715 -3.69237 31001 ft 454 kts 252°
2026-05-07 07:59 46.97877 -3.78023 31001 ft 454 kts 252°
2026-05-07 08:00 46.96026 -3.86839 31001 ft 454 kts 252°
2026-05-07 08:00 46.94175 -3.95612 31001 ft 453 kts 252°
2026-05-07 08:01 46.92318 -4.04384 31001 ft 453 kts 252°
2026-05-07 08:01 46.90449 -4.13169 31002 ft 453 kts 252°
2026-05-07 08:02 46.88579 -4.21916 31002 ft 453 kts 252°
2026-05-07 08:02 46.86702 -4.30666 31001 ft 453 kts 252°
2026-05-07 08:03 46.84819 -4.39402 31001 ft 453 kts 252°
2026-05-07 08:03 46.82923 -4.48166 31002 ft 453 kts 252°
2026-05-07 08:04 46.81029 -4.56878 31002 ft 453 kts 252°
2026-05-07 08:04 46.79127 -4.65591 31002 ft 453 kts 251°
2026-05-07 08:05 46.77210 -4.74331 31002 ft 452 kts 251°
2026-05-07 08:05 46.75298 -4.83019 31002 ft 452 kts 251°
2026-05-07 08:06 46.73379 -4.91706 31002 ft 452 kts 251°
2026-05-07 08:06 46.71449 -5.00411 31002 ft 453 kts 251°
2026-05-07 08:07 46.69508 -5.09121 31001 ft 452 kts 251°
2026-05-07 08:07 46.67569 -5.17789 31001 ft 452 kts 251°
2026-05-07 08:08 46.65626 -5.26443 31000 ft 452 kts 251°
2026-05-07 08:08 46.63668 -5.35126 31000 ft 452 kts 251°
2026-05-07 08:09 46.61713 -5.43758 31001 ft 452 kts 251°
2026-05-07 08:09 46.59748 -5.52396 31003 ft 452 kts 251°
2026-05-07 08:10 46.57780 -5.61020 31003 ft 452 kts 251°
2026-05-07 08:10 46.55793 -5.69683 31004 ft 452 kts 250°
2026-05-07 08:11 46.53808 -5.78304 31006 ft 451 kts 250°
2026-05-07 08:11 46.51819 -5.86904 31007 ft 451 kts 250°
2026-05-07 08:12 46.49817 -5.95531 31008 ft 452 kts 250°
2026-05-07 08:12 46.47817 -6.04119 31013 ft 452 kts 250°
2026-05-07 08:13 46.45806 -6.12713 31013 ft 452 kts 250°
2026-05-07 08:13 46.43794 -6.21285 31008 ft 452 kts 250°
2026-05-07 08:14 46.41765 -6.29902 31007 ft 452 kts 250°
2026-05-07 08:14 46.39740 -6.38464 31004 ft 452 kts 250°
2026-05-07 08:15 46.37705 -6.47024 31004 ft 452 kts 250°
2026-05-07 08:15 46.35657 -6.55607 31000 ft 452 kts 250°
2026-05-07 08:16 46.33610 -6.64160 31005 ft 452 kts 249°
2026-05-07 08:16 46.31562 -6.72687 31006 ft 451 kts 249°
2026-05-07 08:17 46.29505 -6.81215 31007 ft 451 kts 249°
2026-05-07 08:17 46.27435 -6.89767 31006 ft 451 kts 249°
2026-05-07 08:18 46.25367 -6.98270 31003 ft 451 kts 249°
2026-05-07 08:18 46.23293 -7.06767 31003 ft 451 kts 249°
2026-05-07 08:19 46.21199 -7.15313 31001 ft 452 kts 249°
2026-05-07 08:19 46.19105 -7.23827 31001 ft 452 kts 249°
2026-05-07 08:20 46.17006 -7.32328 31001 ft 451 kts 249°
2026-05-07 08:20 46.14909 -7.40791 31001 ft 451 kts 249°
2026-05-07 08:21 46.12796 -7.49284 31001 ft 450 kts 249°
2026-05-07 08:21 46.10684 -7.57738 31001 ft 450 kts 249°
2026-05-07 08:22 46.08565 -7.66190 31001 ft 450 kts 248°
2026-05-07 08:22 46.06434 -7.74651 31001 ft 451 kts 248°
2026-05-07 08:23 46.04301 -7.83095 31001 ft 451 kts 248°
2026-05-07 08:23 46.02222 -7.91568 30999 ft 452 kts 251°
2026-05-07 08:24 46.00757 -8.00307 30991 ft 453 kts 259°
2026-05-07 08:24 46.00071 -8.09273 30979 ft 452 kts 266°
2026-05-07 08:25 46.00025 -8.18267 30973 ft 452 kts 269°
2026-05-07 08:25 46.00054 -8.27243 30979 ft 451 kts 269°
2026-05-07 08:26 46.00070 -8.40720 30972 ft 450 kts 269°
2026-05-07 08:26 46.00066 -8.49655 30971 ft 449 kts 270°
2026-05-07 08:27 46.00054 -8.58628 30978 ft 449 kts 270°
2026-05-07 08:27 45.99957 -8.67564 30979 ft 448 kts 266°
2026-05-07 08:28 45.99253 -8.76413 30969 ft 448 kts 260°
2026-05-07 08:28 45.97850 -8.85101 30970 ft 449 kts 254°
2026-05-07 08:29 45.96019 -8.93672 30971 ft 450 kts 253°
2026-05-07 08:29 45.94175 -9.02218 30971 ft 450 kts 254°
2026-05-07 08:30 45.92328 -9.10758 30960 ft 450 kts 254°
2026-05-07 08:30 45.90477 -9.19285 30971 ft 449 kts 254°
2026-05-07 08:31 45.88616 -9.27829 30965 ft 449 kts 255°
2026-05-07 08:31 45.86755 -9.36319 30968 ft 448 kts 255°
2026-05-07 08:32 45.84893 -9.44802 30966 ft 448 kts 255°
2026-05-07 08:32 45.83020 -9.53307 30962 ft 447 kts 255°
2026-05-07 08:33 45.81148 -9.61768 30971 ft 447 kts 255°
2026-05-07 08:33 45.79270 -9.70197 30966 ft 447 kts 255°
2026-05-07 08:34 45.77387 -9.78640 30971 ft 447 kts 255°
2026-05-07 08:34 45.75490 -9.87110 30963 ft 448 kts 255°
2026-05-07 08:35 45.73591 -9.95546 30961 ft 448 kts 255°
2026-05-07 08:35 45.71690 -10.03983 30970 ft 447 kts 255°
2026-05-07 08:36 45.69776 -10.12437 30972 ft 446 kts 256°
2026-05-07 08:36 45.67868 -10.20821 30973 ft 446 kts 256°
2026-05-07 08:37 45.65953 -10.29205 30973 ft 446 kts 256°
2026-05-07 08:37 45.64031 -10.37580 30973 ft 446 kts 256°
2026-05-07 08:38 45.62098 -10.45979 30972 ft 446 kts 256°
2026-05-07 08:38 45.60163 -10.54346 30974 ft 446 kts 256°
2026-05-07 08:39 45.58221 -10.62716 30974 ft 447 kts 255°
2026-05-07 08:39 45.56255 -10.71099 30976 ft 446 kts 255°
2026-05-07 08:40 45.54302 -10.79455 30976 ft 446 kts 255°
2026-05-07 08:40 45.52356 -10.87790 30977 ft 446 kts 255°
2026-05-07 08:41 45.50397 -10.96120 30978 ft 446 kts 255°
2026-05-07 08:41 45.48419 -11.04487 30976 ft 446 kts 255°
2026-05-07 08:42 45.46442 -11.12812 30976 ft 446 kts 255°
2026-05-07 08:42 45.44462 -11.21131 30971 ft 446 kts 255°
2026-05-07 08:43 45.42470 -11.29467 30965 ft 445 kts 256°
2026-05-07 08:43 45.40482 -11.37753 30961 ft 445 kts 256°
2026-05-07 08:44 45.38479 -11.46023 30961 ft 444 kts 255°
2026-05-07 08:44 45.36468 -11.54288 30958 ft 445 kts 255°
2026-05-07 08:45 45.34452 -11.62586 30956 ft 445 kts 256°
2026-05-07 08:45 45.32449 -11.70842 30965 ft 445 kts 255°
2026-05-07 08:46 45.30438 -11.79090 30973 ft 444 kts 255°
2026-05-07 08:46 45.28415 -11.87339 30983 ft 444 kts 255°
2026-05-07 08:47 45.26393 -11.95552 30981 ft 442 kts 256°
2026-05-07 08:47 45.24373 -12.03737 30985 ft 442 kts 255°
2026-05-07 08:48 45.22346 -12.11911 30980 ft 442 kts 255°
2026-05-07 08:48 45.20296 -12.20138 30978 ft 443 kts 255°
2026-05-07 08:49 45.18251 -12.28314 30981 ft 443 kts 255°
2026-05-07 08:49 45.16195 -12.36510 30978 ft 444 kts 255°
2026-05-07 08:50 45.14129 -12.44720 30976 ft 443 kts 255°
2026-05-07 08:50 45.12069 -12.52869 30973 ft 442 kts 255°
2026-05-07 08:51 45.09997 -12.61041 30977 ft 442 kts 255°
2026-05-07 08:51 45.07918 -12.69213 30974 ft 443 kts 254°
2026-05-07 08:52 45.05837 -12.77363 30974 ft 443 kts 254°
2026-05-07 08:52 45.03748 -12.85507 30974 ft 443 kts 254°
2026-05-07 08:53 45.01654 -12.93643 30974 ft 443 kts 254°
2026-05-07 08:53 44.99304 -13.01693 30977 ft 445 kts 249°
2026-05-07 08:54 44.96453 -13.09425 30978 ft 447 kts 246°
2026-05-07 08:54 44.93530 -13.17119 30978 ft 447 kts 246°
2026-05-07 08:55 44.90592 -13.24834 30978 ft 446 kts 246°
2026-05-07 08:55 44.87665 -13.32495 30978 ft 446 kts 246°
2026-05-07 08:56 44.84741 -13.40133 30978 ft 446 kts 246°
2026-05-07 08:56 44.81808 -13.47767 30979 ft 445 kts 246°
2026-05-07 08:57 44.78861 -13.55420 30979 ft 445 kts 246°
2026-05-07 08:57 44.75925 -13.63025 30979 ft 445 kts 245°
2026-05-07 08:58 44.72983 -13.70619 30980 ft 445 kts 245°
2026-05-07 08:58 44.70024 -13.78242 30978 ft 445 kts 245°
2026-05-07 08:59 44.67071 -13.85826 30975 ft 444 kts 244°
2026-05-07 08:59 44.64115 -13.93401 30972 ft 444 kts 244°
2026-05-07 09:00 44.61160 -14.00946 30970 ft 443 kts 244°
2026-05-07 09:00 44.58192 -14.08508 30966 ft 443 kts 244°
2026-05-07 09:01 44.55232 -14.16028 30967 ft 443 kts 244°
2026-05-07 09:01 44.52265 -14.23541 30965 ft 443 kts 244°
2026-05-07 09:02 44.49281 -14.31079 30965 ft 443 kts 244°
2026-05-07 09:02 44.46306 -14.38573 30964 ft 442 kts 243°
2026-05-07 09:03 44.43328 -14.46052 30971 ft 442 kts 243°
2026-05-07 09:03 44.40347 -14.53521 30975 ft 442 kts 243°
2026-05-07 09:04 44.37349 -14.61015 30975 ft 442 kts 243°
2026-05-07 09:04 44.34362 -14.68462 30974 ft 442 kts 242°
2026-05-07 09:05 44.31370 -14.75907 30976 ft 442 kts 242°
2026-05-07 09:05 44.28359 -14.83374 30976 ft 442 kts 242°
2026-05-07 09:06 44.25356 -14.90802 30972 ft 442 kts 242°
2026-05-07 09:06 44.22350 -14.98223 30973 ft 442 kts 242°
2026-05-07 09:07 44.19341 -15.05631 30974 ft 442 kts 242°
2026-05-07 09:07 44.16309 -15.13073 30976 ft 442 kts 242°
2026-05-07 09:08 44.13282 -15.20484 30978 ft 443 kts 241°
2026-05-07 09:08 44.10247 -15.27890 30973 ft 443 kts 241°
2026-05-07 09:09 44.07209 -15.35282 30973 ft 443 kts 241°
2026-05-07 09:09 44.04154 -15.42705 30971 ft 442 kts 241°
2026-05-07 09:10 44.01112 -15.50074 30972 ft 442 kts 241°
2026-05-07 09:10 43.98072 -15.57426 30968 ft 442 kts 241°
2026-05-07 09:11 43.95009 -15.64808 30955 ft 441 kts 240°
2026-05-07 09:11 43.91956 -15.72146 30932 ft 441 kts 240°
2026-05-07 09:12 43.88896 -15.79487 30922 ft 443 kts 240°
2026-05-07 09:12 43.85820 -15.86847 30932 ft 443 kts 239°
2026-05-07 09:13 43.82739 -15.94201 30932 ft 442 kts 239°
2026-05-07 09:13 43.79660 -16.01525 30931 ft 442 kts 239°
2026-05-07 09:14 43.76581 -16.08835 30929 ft 442 kts 239°
2026-05-07 09:14 43.73481 -16.16176 30924 ft 443 kts 239°
2026-05-07 09:15 43.70383 -16.23495 30926 ft 443 kts 239°
2026-05-07 09:15 43.67278 -16.30812 30924 ft 443 kts 239°
2026-05-07 09:16 43.64167 -16.38121 30928 ft 444 kts 239°
2026-05-07 09:16 43.61028 -16.45473 30930 ft 444 kts 239°
2026-05-07 09:17 43.57905 -16.52770 30927 ft 443 kts 238°
2026-05-07 09:17 43.54780 -16.60054 30935 ft 443 kts 238°
2026-05-07 09:18 43.51636 -16.67358 30932 ft 444 kts 238°
2026-05-07 09:18 43.48502 -16.74628 30930 ft 443 kts 238°
2026-05-07 09:19 43.45367 -16.81885 30927 ft 443 kts 237°
2026-05-07 09:19 43.42207 -16.89176 30928 ft 444 kts 237°
2026-05-07 09:20 43.39050 -16.96444 30928 ft 444 kts 237°
2026-05-07 09:20 43.35894 -17.03693 30935 ft 444 kts 237°
2026-05-07 09:21 43.32735 -17.10931 30932 ft 444 kts 237°
2026-05-07 09:21 43.29559 -17.18191 30925 ft 443 kts 237°
2026-05-07 09:22 43.26395 -17.25404 30930 ft 443 kts 237°
2026-05-07 09:22 43.23220 -17.32619 30922 ft 443 kts 237°
2026-05-07 09:23 43.20046 -17.39819 30925 ft 443 kts 237°
2026-05-07 09:23 43.16865 -17.47025 30923 ft 443 kts 237°
2026-05-07 09:24 43.13686 -17.54200 30922 ft 443 kts 237°
2026-05-07 09:24 43.10497 -17.61385 30922 ft 443 kts 237°
2026-05-07 09:25 43.07294 -17.68580 30922 ft 444 kts 236°
2026-05-07 09:25 43.04090 -17.75759 30912 ft 444 kts 236°
2026-05-07 09:26 43.00884 -17.82924 30905 ft 445 kts 236°
2026-05-07 09:26 42.97667 -17.90098 30898 ft 445 kts 236°
2026-05-07 09:27 42.94435 -17.97287 30890 ft 445 kts 236°
2026-05-07 09:28 42.89590 -18.08040 30884 ft 445 kts 236°
2026-05-07 09:28 42.86354 -18.15195 30882 ft 445 kts 236°
2026-05-07 09:29 42.83098 -18.22378 30885 ft 446 kts 236°
2026-05-07 09:29 42.79848 -18.29527 30887 ft 446 kts 236°
2026-05-07 09:30 42.76595 -18.36666 30886 ft 446 kts 236°
2026-05-07 09:30 42.73326 -18.43827 30885 ft 446 kts 236°
2026-05-07 09:31 42.70064 -18.50952 30889 ft 446 kts 235°
2026-05-07 09:31 42.66801 -18.58064 30891 ft 446 kts 236°
2026-05-07 09:32 42.63526 -18.65185 30894 ft 446 kts 234°
2026-05-07 09:32 42.60243 -18.72305 30892 ft 445 kts 234°
2026-05-07 09:33 42.56968 -18.79383 30892 ft 445 kts 234°
2026-05-07 09:33 42.53691 -18.86452 30894 ft 445 kts 234°
2026-05-07 09:34 42.50393 -18.93555 30891 ft 446 kts 234°
2026-05-07 09:34 42.47098 -19.00633 30888 ft 446 kts 234°
2026-05-07 09:35 42.43794 -19.07709 30888 ft 446 kts 234°
2026-05-07 09:35 42.40489 -19.14775 30886 ft 446 kts 234°
2026-05-07 09:36 42.37172 -19.21849 30884 ft 446 kts 234°
2026-05-07 09:36 42.33864 -19.28890 30882 ft 445 kts 234°
2026-05-07 09:37 42.30554 -19.35917 30875 ft 445 kts 233°
2026-05-07 09:37 42.27227 -19.42964 30872 ft 445 kts 234°
2026-05-07 09:38 42.23904 -19.49985 30872 ft 446 kts 233°
2026-05-07 09:38 42.20570 -19.57014 30873 ft 446 kts 233°
2026-05-07 09:39 42.17241 -19.64019 30876 ft 446 kts 233°
2026-05-07 09:39 42.13894 -19.71039 30870 ft 445 kts 233°
2026-05-07 09:40 42.10557 -19.78025 30867 ft 446 kts 233°
2026-05-07 09:40 42.07206 -19.85020 30864 ft 447 kts 233°
2026-05-07 09:41 42.03831 -19.92049 30867 ft 448 kts 232°
2026-05-07 09:41 42.00428 -19.99034 30866 ft 448 kts 230°
2026-05-07 09:42 41.96679 -20.05610 30874 ft 444 kts 227°
2026-05-07 09:42 41.92828 -20.12084 30858 ft 444 kts 227°
2026-05-07 09:43 41.88989 -20.18522 30877 ft 444 kts 227°
2026-05-07 09:43 41.85154 -20.24942 30861 ft 443 kts 227°
2026-05-07 09:44 41.81314 -20.31359 30864 ft 444 kts 227°
2026-05-07 09:44 41.77447 -20.37802 30865 ft 444 kts 227°
2026-05-07 09:45 41.73569 -20.44245 31022 ft 449 kts 227°
2026-05-07 09:45 41.71617 -20.47485 31344 ft 448 kts 227°
2026-05-07 09:45 41.69680 -20.50696 31692 ft 446 kts 228°
2026-05-07 09:45 41.67745 -20.53907 31853 ft 446 kts 228°
2026-05-07 09:46 41.65794 -20.57142 31857 ft 445 kts 228°
2026-05-07 09:46 41.61926 -20.63544 31854 ft 445 kts 228°
2026-05-07 09:47 41.58053 -20.69935 31853 ft 444 kts 227°
2026-05-07 09:47 41.54176 -20.76316 31857 ft 444 kts 227°
2026-05-07 09:48 41.50283 -20.82707 31852 ft 445 kts 227°
2026-05-07 09:48 41.46400 -20.89072 31849 ft 445 kts 227°
2026-05-07 09:49 41.42509 -20.95432 31851 ft 445 kts 227°
2026-05-07 09:49 41.38596 -21.01817 31852 ft 445 kts 227°
2026-05-07 09:50 41.34697 -21.08165 31853 ft 445 kts 228°
2026-05-07 09:50 41.30796 -21.14504 31845 ft 445 kts 228°
2026-05-07 09:51 41.26890 -21.20838 31849 ft 445 kts 227°
2026-05-07 09:51 41.22973 -21.27176 31847 ft 444 kts 228°
2026-05-07 09:52 41.19059 -21.33496 31857 ft 445 kts 228°
2026-05-07 09:52 41.15140 -21.39808 31841 ft 445 kts 228°
2026-05-07 09:53 41.11206 -21.46132 31856 ft 445 kts 228°
2026-05-07 09:53 41.07290 -21.52416 31839 ft 444 kts 228°
2026-05-07 09:54 41.03369 -21.58696 31839 ft 444 kts 228°
2026-05-07 09:54 40.99443 -21.64968 31842 ft 445 kts 228°
2026-05-07 09:55 40.95495 -21.71260 31830 ft 444 kts 228°
2026-05-07 09:55 40.91569 -21.77509 31821 ft 444 kts 228°
2026-05-07 09:56 40.87633 -21.83759 31825 ft 444 kts 228°
2026-05-07 09:56 40.83679 -21.90024 31814 ft 445 kts 228°
2026-05-07 09:57 40.79735 -21.96264 31813 ft 445 kts 228°
2026-05-07 09:57 40.75787 -22.02497 31812 ft 444 kts 228°
2026-05-07 09:58 40.71848 -22.08700 31813 ft 444 kts 228°
2026-05-07 09:58 40.67888 -22.14923 31810 ft 443 kts 229°
2026-05-07 09:59 40.63943 -22.21112 31814 ft 444 kts 229°
2026-05-07 09:59 40.59995 -22.27290 31810 ft 444 kts 229°
2026-05-07 10:00 40.56033 -22.33483 31808 ft 443 kts 229°
2026-05-07 10:00 40.52076 -22.39654 31806 ft 443 kts 229°
2026-05-07 10:01 40.48122 -22.45807 31809 ft 443 kts 230°
2026-05-07 10:01 40.44122 -22.52023 31945 ft 450 kts 230°
2026-05-07 10:01 40.42088 -22.55175 32126 ft 451 kts 230°
2026-05-07 10:02 40.40073 -22.58294 32335 ft 450 kts 230°
2026-05-07 10:02 40.38064 -22.61402 32531 ft 450 kts 230°
2026-05-07 10:02 40.36053 -22.64510 32708 ft 450 kts 230°
2026-05-07 10:03 40.32006 -22.70755 32802 ft 451 kts 230°
2026-05-07 10:03 40.27946 -22.77012 32799 ft 451 kts 230°
2026-05-07 10:04 40.23895 -22.83235 32803 ft 451 kts 231°
2026-05-07 10:04 40.19845 -22.89449 32805 ft 451 kts 230°
2026-05-07 10:05 40.15791 -22.95650 32809 ft 451 kts 231°
2026-05-07 10:05 40.11729 -23.01866 32801 ft 451 kts 231°
2026-05-07 10:06 40.07670 -23.08070 32784 ft 451 kts 232°
2026-05-07 10:06 40.03595 -23.14281 32799 ft 453 kts 232°
2026-05-07 10:07 39.99496 -23.20512 32803 ft 453 kts 232°
2026-05-07 10:07 39.95412 -23.26703 32810 ft 452 kts 232°
2026-05-07 10:08 39.91330 -23.32882 32807 ft 452 kts 232°
2026-05-07 10:08 39.87240 -23.39056 32804 ft 451 kts 232°
2026-05-07 10:09 39.83142 -23.45229 32821 ft 451 kts 233°
2026-05-07 10:09 39.79044 -23.51390 32820 ft 451 kts 233°
2026-05-07 10:10 39.74945 -23.57547 32826 ft 451 kts 233°
2026-05-07 10:10 39.70824 -23.63718 32816 ft 451 kts 233°
2026-05-07 10:11 39.66726 -23.69845 32824 ft 451 kts 233°
2026-05-07 10:11 39.62621 -23.75971 32820 ft 450 kts 233°
2026-05-07 10:12 39.58513 -23.82088 32818 ft 450 kts 233°
2026-05-07 10:12 39.54381 -23.88232 32824 ft 450 kts 233°
2026-05-07 10:13 39.50273 -23.94322 32824 ft 450 kts 234°
2026-05-07 10:13 39.46162 -24.00414 32816 ft 450 kts 234°
2026-05-07 10:14 39.42030 -24.06515 32838 ft 449 kts 234°
2026-05-07 10:14 39.37923 -24.12573 32834 ft 449 kts 234°
2026-05-07 10:15 39.33804 -24.18632 32864 ft 449 kts 236°
2026-05-07 10:15 39.29692 -24.24675 32856 ft 450 kts 236°
2026-05-07 10:16 39.25559 -24.30741 32876 ft 449 kts 236°
2026-05-07 10:16 39.21436 -24.36770 32855 ft 449 kts 236°
2026-05-07 10:17 39.17300 -24.42806 32873 ft 449 kts 236°
2026-05-07 10:17 39.13143 -24.48865 32862 ft 449 kts 237°
2026-05-07 10:18 39.09017 -24.54868 32866 ft 447 kts 237°
2026-05-07 10:18 39.04899 -24.60840 32875 ft 448 kts 237°
2026-05-07 10:19 39.00773 -24.66823 32883 ft 447 kts 237°
2026-05-07 10:19 38.96642 -24.72795 32859 ft 447 kts 237°
2026-05-07 10:20 38.92511 -24.78760 32868 ft 446 kts 237°
2026-05-07 10:20 38.88385 -24.84696 32851 ft 448 kts 237°
2026-05-07 10:21 38.84213 -24.90693 32872 ft 448 kts 237°
2026-05-07 10:21 38.80069 -24.96631 32889 ft 448 kts 238°
2026-05-07 10:22 38.75913 -25.02591 32891 ft 450 kts 238°
2026-05-07 10:22 38.71753 -25.08542 32875 ft 447 kts 238°
2026-05-07 10:23 38.67575 -25.14501 32875 ft 448 kts 238°
2026-05-07 10:23 38.63405 -25.20446 32881 ft 450 kts 238°
2026-05-07 10:24 38.59238 -25.26367 32885 ft 448 kts 239°
2026-05-07 10:24 38.55050 -25.32312 32888 ft 450 kts 239°
2026-05-07 10:25 38.50870 -25.38233 32886 ft 451 kts 239°
2026-05-07 10:25 38.46680 -25.44156 32885 ft 447 kts 239°
2026-05-07 10:26 38.42518 -25.50032 32884 ft 447 kts 239°
2026-05-07 10:26 38.38339 -25.55922 32888 ft 449 kts 239°
2026-05-07 10:27 38.34158 -25.61799 32892 ft 447 kts 239°
2026-05-07 10:27 38.29979 -25.67667 32903 ft 449 kts 239°
2026-05-07 10:28 38.25762 -25.73574 32909 ft 450 kts 239°
2026-05-07 10:28 38.21560 -25.79454 32915 ft 449 kts 239°
2026-05-07 10:29 38.17356 -25.85318 32919 ft 448 kts 239°
2026-05-07 10:29 38.13146 -25.91191 32923 ft 452 kts 239°
2026-05-07 10:30 38.06798 -26.00006 32941 ft 449 kts 239°
2026-05-07 10:30 38.02594 -26.05838 32944 ft 449 kts 239°
2026-05-07 10:31 37.98369 -26.11689 32934 ft 450 kts 239°
2026-05-07 10:31 37.94123 -26.17561 32942 ft 452 kts 239°
2026-05-07 10:32 37.89891 -26.23394 32940 ft 450 kts 239°
2026-05-07 10:32 37.85654 -26.29227 32939 ft 451 kts 239°
2026-05-07 10:33 37.81418 -26.35041 32948 ft 448 kts 240°
2026-05-07 10:33 37.77189 -26.40850 32947 ft 448 kts 239°
2026-05-07 10:34 37.72966 -26.46632 32952 ft 450 kts 239°
2026-05-07 10:34 37.68730 -26.52419 32948 ft 450 kts 239°
2026-05-07 10:35 37.64468 -26.58236 32962 ft 451 kts 239°
2026-05-07 10:35 37.60234 -26.63991 32965 ft 444 kts 239°
2026-05-07 10:36 37.56025 -26.69716 32974 ft 448 kts 239°
2026-05-07 10:36 37.51787 -26.75472 32968 ft 447 kts 239°
2026-05-07 10:37 37.47567 -26.81189 32974 ft 447 kts 239°
2026-05-07 10:37 37.43340 -26.86901 32979 ft 446 kts 239°
2026-05-07 10:38 37.39121 -26.92598 32979 ft 448 kts 239°
2026-05-07 10:38 37.34858 -26.98343 32984 ft 448 kts 239°
2026-05-07 10:39 37.30625 -27.04034 32993 ft 447 kts 239°
2026-05-07 10:39 37.26384 -27.09730 32993 ft 447 kts 239°
2026-05-07 10:40 37.22138 -27.15417 32997 ft 446 kts 239°
2026-05-07 10:40 37.17888 -27.21107 33008 ft 449 kts 239°
2026-05-07 10:41 37.13629 -27.26793 33007 ft 447 kts 238°
2026-05-07 10:41 37.09381 -27.32451 33011 ft 447 kts 239°
2026-05-07 10:42 37.05107 -27.38142 33019 ft 448 kts 238°
2026-05-07 10:42 37.00828 -27.43826 33022 ft 449 kts 238°
2026-05-07 10:43 36.96548 -27.49499 33018 ft 448 kts 238°
2026-05-07 10:43 36.92272 -27.55161 33026 ft 447 kts 238°
2026-05-07 10:44 36.87996 -27.60811 33032 ft 448 kts 238°
2026-05-07 10:44 36.83724 -27.66442 33035 ft 448 kts 238°
2026-05-07 10:45 36.79425 -27.72107 33043 ft 448 kts 238°
2026-05-07 10:45 36.75132 -27.77748 33044 ft 449 kts 237°
2026-05-07 10:46 36.70844 -27.83375 33052 ft 449 kts 238°
2026-05-07 10:46 36.66546 -27.89002 33053 ft 449 kts 238°
2026-05-07 10:47 36.62236 -27.94640 33060 ft 449 kts 237°
2026-05-07 10:47 36.57934 -28.00255 33068 ft 449 kts 237°
2026-05-07 10:48 36.53631 -28.05865 33060 ft 449 kts 237°
2026-05-07 10:48 36.49306 -28.11488 33070 ft 448 kts 237°
2026-05-07 10:49 36.45013 -28.17060 33066 ft 448 kts 237°
2026-05-07 10:49 36.40712 -28.22638 33073 ft 448 kts 237°
2026-05-07 10:50 36.36408 -28.28210 33078 ft 448 kts 237°
2026-05-07 10:50 36.32074 -28.33807 33086 ft 447 kts 237°
2026-05-07 10:51 36.27772 -28.39354 33088 ft 448 kts 237°
2026-05-07 10:51 36.23461 -28.44909 33093 ft 448 kts 237°
2026-05-07 10:52 36.19128 -28.50477 33095 ft 448 kts 237°
2026-05-07 10:52 36.14807 -28.56020 33094 ft 448 kts 237°
2026-05-07 10:53 36.10476 -28.61570 33100 ft 449 kts 237°
2026-05-07 10:53 36.06138 -28.67116 33101 ft 449 kts 236°
2026-05-07 10:54 36.01784 -28.72675 33105 ft 449 kts 236°
2026-05-07 10:54 35.97443 -28.78203 33111 ft 450 kts 236°
2026-05-07 10:55 35.93099 -28.83733 33104 ft 450 kts 236°
2026-05-07 10:55 35.88741 -28.89266 33091 ft 449 kts 236°
2026-05-07 10:56 35.84401 -28.94771 33112 ft 448 kts 236°
2026-05-07 10:56 35.80050 -29.00281 33104 ft 449 kts 236°
2026-05-07 10:57 35.75698 -29.05779 33114 ft 449 kts 236°
2026-05-07 10:57 35.71336 -29.11281 33121 ft 447 kts 236°
2026-05-07 10:58 35.66998 -29.16742 33099 ft 446 kts 237°
2026-05-07 10:58 35.62649 -29.22219 33094 ft 448 kts 237°
2026-05-07 10:59 35.58288 -29.27696 33107 ft 448 kts 237°
2026-05-07 10:59 35.53938 -29.33148 33100 ft 447 kts 237°
2026-05-07 11:00 35.49582 -29.38594 33124 ft 446 kts 237°
2026-05-07 11:00 35.45242 -29.44017 33113 ft 445 kts 237°
2026-05-07 11:01 35.40882 -29.49455 33115 ft 446 kts 237°
2026-05-07 11:01 35.36539 -29.54859 33127 ft 446 kts 238°
2026-05-07 11:02 35.32207 -29.60247 33128 ft 444 kts 238°
2026-05-07 11:02 35.27850 -29.65654 33134 ft 446 kts 237°
2026-05-07 11:03 35.23508 -29.71029 33136 ft 443 kts 237°
2026-05-07 11:03 35.19174 -29.76393 33145 ft 443 kts 237°
2026-05-07 11:04 35.14839 -29.81747 33144 ft 445 kts 238°
2026-05-07 11:04 35.10466 -29.87135 33152 ft 444 kts 237°
2026-05-07 11:05 35.06131 -29.92469 33144 ft 443 kts 237°
2026-05-07 11:05 35.01823 -29.97799 33154 ft 438 kts 239°
2026-05-07 11:06 34.97907 -30.03444 33155 ft 431 kts 245°
2026-05-07 11:06 34.94344 -30.09274 33161 ft 431 kts 246°
2026-05-07 11:07 34.90780 -30.15097 33163 ft 429 kts 246°
2026-05-07 11:07 34.87219 -30.20912 33159 ft 429 kts 246°
2026-05-07 11:08 34.83648 -30.26729 33163 ft 430 kts 246°
2026-05-07 11:08 34.80076 -30.32542 33168 ft 428 kts 246°
2026-05-07 11:09 34.76512 -30.38324 33167 ft 427 kts 246°
2026-05-07 11:09 34.72945 -30.44109 33161 ft 428 kts 245°
2026-05-07 11:10 34.69372 -30.49892 33182 ft 430 kts 246°
2026-05-07 11:10 34.65781 -30.55693 33174 ft 430 kts 245°
2026-05-07 11:11 34.62194 -30.61472 33175 ft 431 kts 246°
2026-05-07 11:11 34.58583 -30.67290 33188 ft 430 kts 245°
2026-05-07 11:12 34.54988 -30.73066 33201 ft 431 kts 245°
2026-05-07 11:12 34.51374 -30.78863 33194 ft 431 kts 245°
2026-05-07 11:13 34.47754 -30.84661 33196 ft 432 kts 245°
2026-05-07 11:13 34.44129 -30.90466 33203 ft 432 kts 244°
2026-05-07 11:14 34.40506 -30.96240 33196 ft 433 kts 244°
2026-05-07 11:14 34.36879 -31.02022 33196 ft 433 kts 244°
2026-05-07 11:15 34.33231 -31.07827 33192 ft 432 kts 244°
2026-05-07 11:15 34.29601 -31.13593 33205 ft 431 kts 244°
2026-05-07 11:16 34.25961 -31.19374 33192 ft 432 kts 244°
2026-05-07 11:16 34.22305 -31.25163 33210 ft 434 kts 245°
2026-05-07 11:17 34.18655 -31.30942 33212 ft 433 kts 244°
2026-05-07 11:17 34.14989 -31.36732 33209 ft 436 kts 244°
2026-05-07 11:18 34.11313 -31.42527 33219 ft 436 kts 245°
2026-05-07 11:18 34.07629 -31.48312 33224 ft 434 kts 244°
2026-05-07 11:19 34.03950 -31.54099 33235 ft 436 kts 244°
2026-05-07 11:19 34.00275 -31.59864 33224 ft 434 kts 244°
2026-05-07 11:20 33.96583 -31.65649 33233 ft 436 kts 243°
2026-05-07 11:20 33.92886 -31.71428 33234 ft 435 kts 243°
2026-05-07 11:21 33.89198 -31.77185 33236 ft 437 kts 243°
2026-05-07 11:21 33.85504 -31.82946 33245 ft 434 kts 243°
2026-05-07 11:22 33.81803 -31.88705 33245 ft 437 kts 243°
2026-05-07 11:22 33.78101 -31.94461 33250 ft 437 kts 243°
2026-05-07 11:23 33.74388 -32.00218 33254 ft 436 kts 243°
2026-05-07 11:23 33.70660 -32.05995 33252 ft 437 kts 243°
2026-05-07 11:24 33.66942 -32.11737 33248 ft 436 kts 243°
2026-05-07 11:24 33.63213 -32.17490 33248 ft 437 kts 243°
2026-05-07 11:25 33.59468 -32.23264 33251 ft 438 kts 243°
2026-05-07 11:25 33.55727 -32.29021 33251 ft 437 kts 242°
2026-05-07 11:26 33.51988 -32.34762 33250 ft 438 kts 242°
2026-05-07 11:26 33.48249 -32.40503 33246 ft 438 kts 242°
2026-05-07 11:27 33.44490 -32.46257 33249 ft 438 kts 242°
2026-05-07 11:27 33.40750 -32.51978 33251 ft 437 kts 242°
2026-05-07 11:28 33.37008 -32.57690 33257 ft 437 kts 242°
2026-05-07 11:28 33.33247 -32.63427 33256 ft 437 kts 242°
2026-05-07 11:29 33.29501 -32.69130 33253 ft 438 kts 241°
2026-05-07 11:29 33.25752 -32.74833 33249 ft 437 kts 241°
2026-05-07 11:30 33.22000 -32.80531 33250 ft 437 kts 241°
2026-05-07 11:30 33.18226 -32.86249 33250 ft 437 kts 241°
2026-05-07 11:31 33.14469 -32.91931 33252 ft 437 kts 241°
2026-05-07 11:31 33.10712 -32.97608 33253 ft 436 kts 240°
2026-05-07 11:32 33.05057 -33.06131 33255 ft 436 kts 240°
2026-05-07 11:33 33.01300 -33.11787 33261 ft 437 kts 240°
2026-05-07 11:33 32.97541 -33.17435 33256 ft 436 kts 240°
2026-05-07 11:34 32.93759 -33.23112 33257 ft 437 kts 240°
2026-05-07 11:34 32.89979 -33.28773 33258 ft 437 kts 240°
2026-05-07 11:35 32.86207 -33.34415 33259 ft 436 kts 240°
2026-05-07 11:35 32.82429 -33.40058 33261 ft 436 kts 240°
2026-05-07 11:36 32.78633 -33.45712 33262 ft 437 kts 240°
2026-05-07 11:36 32.74847 -33.51349 33263 ft 437 kts 240°
2026-05-07 11:37 32.71065 -33.56972 33258 ft 437 kts 240°
2026-05-07 11:37 32.67259 -33.62623 33260 ft 437 kts 240°
2026-05-07 11:38 32.63464 -33.68248 33266 ft 437 kts 239°
2026-05-07 11:38 32.59665 -33.73868 33265 ft 438 kts 239°
2026-05-07 11:39 32.55859 -33.79489 33263 ft 438 kts 239°
2026-05-07 11:39 32.52031 -33.85137 33262 ft 438 kts 239°
2026-05-07 11:40 32.48217 -33.90759 33264 ft 438 kts 239°
2026-05-07 11:40 32.44386 -33.96390 33268 ft 438 kts 239°
2026-05-07 11:41 32.40550 -34.02022 33261 ft 438 kts 239°
2026-05-07 11:41 32.36738 -34.07612 33261 ft 437 kts 239°
2026-05-07 11:42 32.32924 -34.13196 33259 ft 439 kts 239°
2026-05-07 11:42 32.29099 -34.18792 33260 ft 439 kts 239°
2026-05-07 11:43 32.25249 -34.24414 33258 ft 439 kts 238°
2026-05-07 11:43 32.21408 -34.30012 33266 ft 439 kts 238°
2026-05-07 11:44 32.17570 -34.35598 33265 ft 439 kts 238°
2026-05-07 11:44 32.13711 -34.41204 33265 ft 440 kts 238°
2026-05-07 11:45 32.09857 -34.46799 33268 ft 440 kts 238°
2026-05-07 11:45 32.06003 -34.52382 33264 ft 439 kts 238°
2026-05-07 11:46 32.02142 -34.57971 33259 ft 440 kts 238°
2026-05-07 11:46 31.98250 -34.63596 33270 ft 440 kts 238°
2026-05-07 11:47 31.94380 -34.69177 33270 ft 441 kts 237°
2026-05-07 11:47 31.90511 -34.74751 33267 ft 441 kts 237°
2026-05-07 11:48 31.86627 -34.80342 33266 ft 440 kts 237°
2026-05-07 11:48 31.82754 -34.85905 33268 ft 441 kts 237°
2026-05-07 11:49 31.78868 -34.91477 33267 ft 441 kts 237°
2026-05-07 11:49 31.74990 -34.97034 33261 ft 440 kts 237°
2026-05-07 11:50 31.71087 -35.02614 33268 ft 441 kts 237°
2026-05-07 11:50 31.67207 -35.08153 33271 ft 440 kts 237°
2026-05-07 11:51 31.63328 -35.13681 33269 ft 440 kts 237°
2026-05-07 11:51 31.59435 -35.19226 33270 ft 440 kts 237°
2026-05-07 11:52 31.55547 -35.24751 33267 ft 440 kts 237°
2026-05-07 11:52 31.51663 -35.30271 33270 ft 440 kts 237°
2026-05-07 11:53 31.47761 -35.35802 33273 ft 440 kts 237°
2026-05-07 11:53 31.43853 -35.41334 33274 ft 440 kts 237°
2026-05-07 11:54 31.39957 -35.46840 33281 ft 440 kts 237°
2026-05-07 11:54 31.36056 -35.52348 33279 ft 440 kts 237°
2026-05-07 11:55 31.32145 -35.57861 33283 ft 440 kts 237°
2026-05-07 11:55 31.28237 -35.63363 33280 ft 441 kts 237°
2026-05-07 11:56 31.24310 -35.68883 33282 ft 441 kts 237°
2026-05-07 11:56 31.20394 -35.74377 33280 ft 442 kts 237°
2026-05-07 11:57 31.16446 -35.79908 33278 ft 442 kts 237°
2026-05-07 11:57 31.12524 -35.85399 33279 ft 442 kts 237°
2026-05-07 11:58 31.08599 -35.90886 33279 ft 441 kts 237°
2026-05-07 11:58 31.04653 -35.96392 33279 ft 442 kts 237°
2026-05-07 11:59 31.00721 -36.01872 33275 ft 442 kts 237°
2026-05-07 11:59 30.96779 -36.07358 33277 ft 442 kts 237°
2026-05-07 12:00 30.92837 -36.12834 33276 ft 442 kts 237°
2026-05-07 12:00 30.88884 -36.18321 33277 ft 441 kts 237°
2026-05-07 12:01 30.84941 -36.23788 33278 ft 442 kts 237°
2026-05-07 12:01 30.80996 -36.29245 33281 ft 442 kts 237°
2026-05-07 12:02 30.77032 -36.34723 33284 ft 442 kts 237°
2026-05-07 12:02 30.73080 -36.40175 33283 ft 441 kts 237°
2026-05-07 12:03 30.69139 -36.45605 33286 ft 440 kts 237°
2026-05-07 12:03 30.65207 -36.51015 33290 ft 439 kts 237°
2026-05-07 12:04 30.61267 -36.56431 33290 ft 438 kts 237°
2026-05-07 12:04 30.57336 -36.61825 33292 ft 438 kts 237°
2026-05-07 12:05 30.53411 -36.67205 33295 ft 438 kts 236°
2026-05-07 12:05 30.49463 -36.72609 33295 ft 438 kts 236°
2026-05-07 12:06 30.45524 -36.77994 33298 ft 438 kts 236°
2026-05-07 12:06 30.41592 -36.83359 33296 ft 438 kts 236°
2026-05-07 12:07 30.37662 -36.88714 33299 ft 437 kts 236°
2026-05-07 12:07 30.33716 -36.94084 33294 ft 437 kts 236°
2026-05-07 12:08 30.29784 -36.99430 33286 ft 438 kts 236°
2026-05-07 12:08 30.25841 -37.04780 33279 ft 438 kts 236°
2026-05-07 12:09 30.21889 -37.10136 33280 ft 438 kts 236°
2026-05-07 12:09 30.17947 -37.15477 33280 ft 437 kts 236°
2026-05-07 12:10 30.14010 -37.20801 33278 ft 437 kts 236°
2026-05-07 12:10 30.10070 -37.26117 33279 ft 436 kts 236°
2026-05-07 12:11 30.06122 -37.31439 33276 ft 435 kts 236°
2026-05-07 12:11 30.02197 -37.36725 33278 ft 436 kts 236°
2026-05-07 12:12 29.98253 -37.42030 33277 ft 437 kts 236°
2026-05-07 12:12 29.94292 -37.47347 33277 ft 437 kts 236°
2026-05-07 12:13 29.90338 -37.52648 33274 ft 437 kts 236°
2026-05-07 12:13 29.86385 -37.57945 33274 ft 437 kts 236°
2026-05-07 12:14 29.82430 -37.63233 33273 ft 436 kts 236°
2026-05-07 12:14 29.78459 -37.68539 33276 ft 437 kts 235°
2026-05-07 12:15 29.74499 -37.73822 33276 ft 436 kts 235°
2026-05-07 12:15 29.70536 -37.79102 33272 ft 436 kts 235°
2026-05-07 12:16 29.66571 -37.84376 33278 ft 436 kts 235°
2026-05-07 12:16 29.62615 -37.89637 33273 ft 436 kts 235°
2026-05-07 12:17 29.58659 -37.94886 33274 ft 435 kts 235°
2026-05-07 12:17 29.54701 -38.00130 33277 ft 436 kts 235°
2026-05-07 12:18 29.50723 -38.05395 33277 ft 436 kts 235°
2026-05-07 12:18 29.46759 -38.10636 33278 ft 436 kts 235°
2026-05-07 12:19 29.42779 -38.15887 33278 ft 437 kts 235°
2026-05-07 12:19 29.38786 -38.21151 33278 ft 436 kts 235°
2026-05-07 12:20 29.34807 -38.26393 33278 ft 437 kts 235°
2026-05-07 12:20 29.30815 -38.31646 33273 ft 437 kts 235°
2026-05-07 12:21 29.26824 -38.36888 33268 ft 438 kts 235°
2026-05-07 12:21 29.22818 -38.42142 33263 ft 437 kts 235°
2026-05-07 12:22 29.18834 -38.47359 33261 ft 436 kts 235°
2026-05-07 12:22 29.14857 -38.52563 33260 ft 436 kts 235°
2026-05-07 12:23 29.10859 -38.57786 33259 ft 436 kts 235°
2026-05-07 12:23 29.06870 -38.62989 33256 ft 437 kts 235°
2026-05-07 12:24 29.02875 -38.68197 33258 ft 437 kts 234°
2026-05-07 12:24 28.98881 -38.73397 33254 ft 437 kts 234°
2026-05-07 12:25 28.94880 -38.78600 33254 ft 435 kts 234°
2026-05-07 12:25 28.90889 -38.83779 33254 ft 437 kts 234°
2026-05-07 12:26 28.86883 -38.88972 33255 ft 438 kts 234°
2026-05-07 12:26 28.82855 -38.94185 33253 ft 438 kts 234°
2026-05-07 12:27 28.78843 -38.99373 33253 ft 437 kts 234°
2026-05-07 12:27 28.74835 -39.04551 33249 ft 437 kts 234°
2026-05-07 12:28 28.70824 -39.09725 33253 ft 437 kts 234°
2026-05-07 12:28 28.66796 -39.14912 33254 ft 438 kts 234°
2026-05-07 12:29 28.62775 -39.20084 33253 ft 438 kts 234°
2026-05-07 12:29 28.58749 -39.25256 33252 ft 438 kts 234°
2026-05-07 12:30 28.54708 -39.30440 33251 ft 438 kts 234°
2026-05-07 12:30 28.50685 -39.35598 33251 ft 437 kts 233°
2026-05-07 12:31 28.46658 -39.40753 33254 ft 437 kts 233°
2026-05-07 12:31 28.42636 -39.45896 33254 ft 437 kts 234°
2026-05-07 12:32 28.38590 -39.51064 33254 ft 437 kts 233°
2026-05-07 12:32 28.34559 -39.56205 33248 ft 438 kts 233°
2026-05-07 12:33 28.28487 -39.63937 33268 ft 444 kts 233°
2026-05-07 12:33 28.26412 -39.66577 33403 ft 448 kts 233°
2026-05-07 12:33 28.24340 -39.69210 33652 ft 450 kts 233°
2026-05-07 12:34 28.22268 -39.71842 34023 ft 448 kts 233°
2026-05-07 12:34 28.20199 -39.74466 34439 ft 446 kts 233°
2026-05-07 12:34 28.18146 -39.77070 34829 ft 444 kts 233°
2026-05-07 12:34 28.16090 -39.79676 35177 ft 443 kts 233°
2026-05-07 12:35 28.11983 -39.84878 35233 ft 442 kts 233°
2026-05-07 12:35 28.07884 -39.90057 35234 ft 442 kts 233°
2026-05-07 12:36 28.03784 -39.95231 35236 ft 442 kts 233°
2026-05-07 12:36 27.99946 -40.00607 35235 ft 438 kts 238°
2026-05-07 12:37 27.96610 -40.06355 35233 ft 436 kts 243°
2026-05-07 12:37 27.93462 -40.12205 35232 ft 437 kts 243°
2026-05-07 12:38 27.90312 -40.18054 35235 ft 435 kts 242°
2026-05-07 12:38 27.87153 -40.23909 35230 ft 436 kts 242°
2026-05-07 12:39 27.84004 -40.29737 35230 ft 436 kts 242°
2026-05-07 12:39 27.80853 -40.35561 35233 ft 435 kts 242°
2026-05-07 12:40 27.77707 -40.41366 35234 ft 435 kts 242°
2026-05-07 12:40 27.74540 -40.47205 35234 ft 435 kts 242°
2026-05-07 12:41 27.71388 -40.53008 35237 ft 435 kts 242°
2026-05-07 12:41 27.68232 -40.58812 35240 ft 435 kts 242°
2026-05-07 12:42 27.65060 -40.64635 35239 ft 435 kts 242°
2026-05-07 12:42 27.61899 -40.70431 35244 ft 435 kts 242°
2026-05-07 12:43 27.58739 -40.76216 35237 ft 435 kts 242°
2026-05-07 12:43 27.55570 -40.82012 35235 ft 435 kts 242°
2026-05-07 12:44 27.52392 -40.87818 35230 ft 435 kts 242°
2026-05-07 12:44 27.49223 -40.93598 35233 ft 435 kts 241°
2026-05-07 12:45 27.46052 -40.99371 35228 ft 435 kts 242°
2026-05-07 12:45 27.42868 -41.05160 35227 ft 435 kts 241°
2026-05-07 12:46 27.39691 -41.10931 35232 ft 435 kts 241°
2026-05-07 12:46 27.36514 -41.16696 35230 ft 435 kts 241°
2026-05-07 12:47 27.33332 -41.22459 35226 ft 435 kts 241°
2026-05-07 12:47 27.30139 -41.28236 35225 ft 435 kts 241°
2026-05-07 12:48 27.26950 -41.33998 35217 ft 435 kts 241°
2026-05-07 12:48 27.23759 -41.39753 35221 ft 435 kts 241°
2026-05-07 12:49 27.20554 -41.45530 35223 ft 435 kts 241°
2026-05-07 12:49 27.17361 -41.51279 35214 ft 435 kts 241°
2026-05-07 12:50 27.14162 -41.57028 35222 ft 435 kts 241°
2026-05-07 12:50 27.10971 -41.62761 35229 ft 435 kts 240°
2026-05-07 12:51 27.07759 -41.68519 35236 ft 435 kts 240°
2026-05-07 12:51 27.04555 -41.74255 35233 ft 435 kts 240°
2026-05-07 12:52 27.01351 -41.79988 35235 ft 435 kts 240°
2026-05-07 12:52 26.98130 -41.85740 35232 ft 436 kts 240°
2026-05-07 12:53 26.94917 -41.91472 35231 ft 435 kts 240°
2026-05-07 12:53 26.91701 -41.97199 35230 ft 435 kts 240°
2026-05-07 12:54 26.88497 -42.02899 35231 ft 434 kts 240°
2026-05-07 12:54 26.85269 -42.08630 35228 ft 434 kts 240°
2026-05-07 12:55 26.82054 -42.14337 35229 ft 435 kts 240°
2026-05-07 12:55 26.78836 -42.20038 35228 ft 434 kts 240°
2026-05-07 12:56 26.75597 -42.25770 35227 ft 435 kts 240°
2026-05-07 12:56 26.72371 -42.31473 35222 ft 435 kts 240°
2026-05-07 12:57 26.69143 -42.37171 35216 ft 435 kts 240°
2026-05-07 12:57 26.65909 -42.42871 35218 ft 436 kts 239°
2026-05-07 12:58 26.62659 -42.48594 35217 ft 436 kts 239°
2026-05-07 12:58 26.59422 -42.54282 35213 ft 436 kts 239°
2026-05-07 12:59 26.56184 -42.59972 35213 ft 435 kts 239°
2026-05-07 12:59 26.52927 -42.65687 35210 ft 435 kts 239°
2026-05-07 13:00 26.49684 -42.71367 35211 ft 435 kts 239°
2026-05-07 13:00 26.46439 -42.77046 35213 ft 436 kts 239°
2026-05-07 13:01 26.43188 -42.82731 35209 ft 436 kts 239°
2026-05-07 13:01 26.39924 -42.88428 35207 ft 435 kts 239°
2026-05-07 13:02 26.36670 -42.94100 35205 ft 436 kts 239°
2026-05-07 13:02 26.33395 -42.99798 35204 ft 437 kts 239°
2026-05-07 13:03 26.30118 -43.05496 35204 ft 436 kts 239°
2026-05-07 13:03 26.26858 -43.11159 35202 ft 436 kts 239°
2026-05-07 13:04 26.23595 -43.16817 35198 ft 435 kts 239°
2026-05-07 13:04 26.20331 -43.22472 35198 ft 435 kts 238°
2026-05-07 13:05 26.17058 -43.28134 35194 ft 435 kts 238°
2026-05-07 13:05 26.13784 -43.33792 35193 ft 436 kts 238°
2026-05-07 13:06 26.10507 -43.39446 35193 ft 436 kts 238°
2026-05-07 13:06 26.07212 -43.45124 35188 ft 436 kts 238°
2026-05-07 13:07 26.03937 -43.50761 35188 ft 435 kts 238°
2026-05-07 13:07 26.00655 -43.56405 35192 ft 435 kts 238°
2026-05-07 13:08 25.97376 -43.62038 35188 ft 435 kts 238°
2026-05-07 13:08 25.94078 -43.67690 35189 ft 435 kts 238°
2026-05-07 13:09 25.90794 -43.73315 35187 ft 436 kts 238°
2026-05-07 13:09 25.87502 -43.78947 35186 ft 436 kts 238°
2026-05-07 13:10 25.84198 -43.84594 35186 ft 436 kts 238°
2026-05-07 13:10 25.80895 -43.90231 35187 ft 437 kts 238°
2026-05-07 13:11 25.77591 -43.95866 35188 ft 437 kts 238°
2026-05-07 13:11 25.74289 -44.01489 35188 ft 436 kts 238°
2026-05-07 13:12 25.70977 -44.07123 35186 ft 436 kts 238°
2026-05-07 13:12 25.67675 -44.12729 35187 ft 436 kts 238°
2026-05-07 13:13 25.64364 -44.18345 35186 ft 437 kts 238°
2026-05-07 13:13 25.61037 -44.23981 35185 ft 436 kts 238°
2026-05-07 13:14 25.57725 -44.29586 35187 ft 437 kts 238°
2026-05-07 13:14 25.54404 -44.35202 35189 ft 437 kts 238°
2026-05-07 13:15 25.51080 -44.40816 35190 ft 437 kts 238°
2026-05-07 13:15 25.47747 -44.46438 35188 ft 436 kts 238°
2026-05-07 13:16 25.44424 -44.52037 35185 ft 436 kts 238°
2026-05-07 13:16 25.41093 -44.57639 35183 ft 436 kts 238°
2026-05-07 13:17 25.37756 -44.63247 35179 ft 437 kts 237°
2026-05-07 13:17 25.34424 -44.68838 35176 ft 437 kts 237°
2026-05-07 13:18 25.31086 -44.74432 35176 ft 436 kts 237°
2026-05-07 13:18 25.27753 -44.80015 35171 ft 436 kts 237°
2026-05-07 13:19 25.24411 -44.85605 35170 ft 436 kts 237°
2026-05-07 13:19 25.21068 -44.91189 35228 ft 439 kts 237°
2026-05-07 13:20 25.19387 -44.93993 35528 ft 439 kts 237°
2026-05-07 13:20 25.17714 -44.96783 35938 ft 436 kts 237°
2026-05-07 13:20 25.16051 -44.99554 36305 ft 434 kts 237°
2026-05-07 13:20 25.14381 -45.02334 36613 ft 433 kts 237°
2026-05-07 13:21 25.12727 -45.05090 36902 ft 432 kts 238°
2026-05-07 13:21 25.11075 -45.07840 37168 ft 431 kts 238°
2026-05-07 13:21 25.09423 -45.10587 37412 ft 431 kts 238°
2026-05-07 13:21 25.07773 -45.13331 37672 ft 430 kts 238°
2026-05-07 13:22 25.06129 -45.16064 37929 ft 429 kts 238°
2026-05-07 13:22 25.04486 -45.18793 38143 ft 429 kts 238°
2026-05-07 13:22 25.01191 -45.24262 38166 ft 428 kts 238°
2026-05-07 13:23 24.97915 -45.29693 38168 ft 427 kts 238°
2026-05-07 13:23 24.94636 -45.35122 38168 ft 427 kts 238°
2026-05-07 13:24 24.91342 -45.40565 38168 ft 428 kts 238°
2026-05-07 13:24 24.88056 -45.45993 38168 ft 428 kts 238°
2026-05-07 13:25 24.84765 -45.51418 38168 ft 427 kts 238°
2026-05-07 13:25 24.81481 -45.56833 38168 ft 428 kts 238°
2026-05-07 13:26 24.78175 -45.62276 38168 ft 428 kts 238°
2026-05-07 13:26 24.74879 -45.67692 38170 ft 427 kts 237°
2026-05-07 13:27 24.71577 -45.73112 38168 ft 428 kts 238°
2026-05-07 13:27 24.68281 -45.78518 38168 ft 427 kts 237°
2026-05-07 13:28 24.64971 -45.83942 38168 ft 427 kts 238°
2026-05-07 13:28 24.61673 -45.89336 38168 ft 428 kts 238°
2026-05-07 13:29 24.58369 -45.94741 38168 ft 428 kts 237°
2026-05-07 13:29 24.55051 -46.00162 38168 ft 427 kts 237°
2026-05-07 13:30 24.51745 -46.05553 38168 ft 428 kts 237°
2026-05-07 13:30 24.48432 -46.10950 38168 ft 427 kts 237°
2026-05-07 13:31 24.45112 -46.16353 38168 ft 427 kts 237°
2026-05-07 13:31 24.41802 -46.21735 38168 ft 427 kts 237°
2026-05-07 13:32 24.38489 -46.27115 38168 ft 427 kts 237°
2026-05-07 13:32 24.35176 -46.32488 38168 ft 427 kts 237°
2026-05-07 13:33 24.31850 -46.37878 38168 ft 427 kts 237°
2026-05-07 13:33 24.28534 -46.43247 38168 ft 427 kts 237°
2026-05-07 13:34 24.23553 -46.51295 38168 ft 427 kts 237°
2026-05-07 13:35 24.20214 -46.56684 38168 ft 428 kts 237°
2026-05-07 13:35 24.16884 -46.62055 38168 ft 427 kts 237°
2026-05-07 13:36 24.13558 -46.67413 38170 ft 427 kts 237°
2026-05-07 13:36 24.10218 -46.72787 38168 ft 427 kts 237°
2026-05-07 13:37 24.06888 -46.78138 38168 ft 426 kts 237°
2026-05-07 13:37 24.03561 -46.83479 38168 ft 426 kts 237°
2026-05-07 13:38 24.00235 -46.88814 38168 ft 426 kts 237°
2026-05-07 13:38 23.96894 -46.94167 38168 ft 426 kts 237°
2026-05-07 13:39 23.93560 -46.99501 38166 ft 426 kts 237°
2026-05-07 13:39 23.90226 -47.04832 38168 ft 426 kts 237°
2026-05-07 13:40 23.86872 -47.10190 38164 ft 427 kts 237°
2026-05-07 13:40 23.83523 -47.15530 38161 ft 428 kts 237°
2026-05-07 13:41 23.80177 -47.20863 38160 ft 427 kts 237°
2026-05-07 13:41 23.76831 -47.26187 38157 ft 427 kts 237°
2026-05-07 13:42 23.73475 -47.31525 38158 ft 426 kts 237°
2026-05-07 13:42 23.70127 -47.36841 38157 ft 426 kts 237°
2026-05-07 13:43 23.66782 -47.42149 38155 ft 426 kts 237°
2026-05-07 13:43 23.63424 -47.47474 38153 ft 426 kts 236°
2026-05-07 13:44 23.60080 -47.52768 38153 ft 426 kts 237°
2026-05-07 13:44 23.56729 -47.58069 38151 ft 426 kts 236°
2026-05-07 13:45 23.53374 -47.63370 38149 ft 426 kts 237°
2026-05-07 13:45 23.50005 -47.68685 38151 ft 427 kts 236°
2026-05-07 13:46 23.46639 -47.73993 38149 ft 426 kts 236°
2026-05-07 13:46 23.43271 -47.79297 38147 ft 427 kts 236°
2026-05-07 13:47 23.39889 -47.84619 38147 ft 427 kts 236°
2026-05-07 13:47 23.36515 -47.89922 38147 ft 427 kts 236°
2026-05-07 13:48 23.33151 -47.95205 38146 ft 426 kts 236°
2026-05-07 13:48 23.29770 -48.00509 38145 ft 426 kts 236°
2026-05-07 13:49 23.26397 -48.05797 38145 ft 426 kts 236°
2026-05-07 13:49 23.23024 -48.11075 38144 ft 426 kts 236°
2026-05-07 13:50 23.19645 -48.16358 38145 ft 426 kts 236°
2026-05-07 13:50 23.15698 -48.22522 38145 ft 426 kts 236°
2026-05-07 13:51 23.12879 -48.26921 38146 ft 426 kts 236°
2026-05-07 13:51 23.09505 -48.32182 38145 ft 426 kts 236°
2026-05-07 13:52 23.06123 -48.37450 38145 ft 426 kts 236°
2026-05-07 13:52 23.02732 -48.42726 38146 ft 425 kts 236°
2026-05-07 13:53 22.99357 -48.47971 38146 ft 425 kts 236°
2026-05-07 13:53 22.95978 -48.53216 38143 ft 425 kts 236°
2026-05-07 13:54 22.92593 -48.58467 38143 ft 425 kts 236°
2026-05-07 13:54 22.89202 -48.63721 38142 ft 426 kts 236°
2026-05-07 13:55 22.85814 -48.68967 38144 ft 426 kts 235°
2026-05-07 13:55 22.82427 -48.74204 38139 ft 425 kts 235°
2026-05-07 13:56 22.79028 -48.79455 38138 ft 425 kts 235°
2026-05-07 13:56 22.75638 -48.84687 38131 ft 425 kts 235°
2026-05-07 13:57 22.72254 -48.89905 38126 ft 424 kts 235°
2026-05-07 13:57 22.68855 -48.95139 38123 ft 425 kts 235°
2026-05-07 13:58 22.65463 -49.00356 38123 ft 424 kts 235°
2026-05-07 13:58 22.62077 -49.05563 38120 ft 425 kts 235°
2026-05-07 13:59 22.58681 -49.10777 38119 ft 425 kts 235°
2026-05-07 13:59 22.55266 -49.16015 38122 ft 425 kts 235°
2026-05-07 14:00 22.51867 -49.21226 38122 ft 426 kts 235°
2026-05-07 14:00 22.48464 -49.26434 38125 ft 425 kts 235°
2026-05-07 14:01 22.45047 -49.31660 38123 ft 425 kts 235°
2026-05-07 14:01 22.41645 -49.36858 38126 ft 425 kts 235°
2026-05-07 14:02 22.38241 -49.42051 38125 ft 425 kts 235°
2026-05-07 14:02 22.34832 -49.47250 38123 ft 425 kts 235°
2026-05-07 14:03 22.31407 -49.52468 38125 ft 425 kts 235°
2026-05-07 14:03 22.27997 -49.57657 38126 ft 425 kts 235°
2026-05-07 14:04 22.24582 -49.62851 38128 ft 426 kts 235°
2026-05-07 14:04 22.21149 -49.68064 38126 ft 426 kts 234°
2026-05-07 14:05 22.17728 -49.73254 38124 ft 426 kts 235°
2026-05-07 14:05 22.14300 -49.78446 38126 ft 426 kts 234°
2026-05-07 14:06 22.10872 -49.83630 38124 ft 426 kts 234°
2026-05-07 14:06 22.06861 -49.89691 38123 ft 426 kts 234°
2026-05-07 14:07 22.03989 -49.94020 38120 ft 427 kts 235°
2026-05-07 14:07 22.00568 -49.99209 38122 ft 425 kts 236°
2026-05-07 14:08 21.97414 -50.04596 38124 ft 424 kts 238°
2026-05-07 14:08 21.93806 -50.10884 38124 ft 424 kts 238°
2026-05-07 14:09 21.91227 -50.15372 38122 ft 424 kts 238°
2026-05-07 14:09 21.88125 -50.20763 38125 ft 425 kts 238°
2026-05-07 14:10 21.84496 -50.27065 38126 ft 426 kts 238°
2026-05-07 14:10 21.81372 -50.32478 38121 ft 425 kts 238°
2026-05-07 14:11 21.78260 -50.37867 38126 ft 426 kts 238°
2026-05-07 14:11 21.75656 -50.42372 38124 ft 426 kts 238°
2026-05-07 14:12 21.72021 -50.48657 38122 ft 425 kts 238°
2026-05-07 14:12 21.69430 -50.53130 38120 ft 426 kts 238°
2026-05-07 14:13 21.66311 -50.58512 38125 ft 425 kts 238°
2026-05-07 14:13 21.63182 -50.63904 38124 ft 425 kts 238°
2026-05-07 14:14 21.59543 -50.70169 38123 ft 425 kts 238°
2026-05-07 14:14 21.56949 -50.74631 38122 ft 424 kts 238°
2026-05-07 14:15 21.53306 -50.80894 38122 ft 425 kts 238°
2026-05-07 14:15 21.50170 -50.86276 38122 ft 424 kts 238°
2026-05-07 14:16 21.47048 -50.91627 38124 ft 425 kts 238°
2026-05-07 14:16 21.43915 -50.96989 38123 ft 425 kts 238°
2026-05-07 14:17 21.40790 -51.02335 38123 ft 424 kts 238°
2026-05-07 14:17 21.38178 -51.06799 38124 ft 424 kts 238°
2026-05-07 14:18 21.34526 -51.13039 38121 ft 424 kts 238°
2026-05-07 14:18 21.31403 -51.18370 38118 ft 424 kts 238°
2026-05-07 14:19 21.28262 -51.23728 38122 ft 424 kts 238°
2026-05-07 14:19 21.25650 -51.28176 38122 ft 424 kts 238°
2026-05-07 14:20 21.22517 -51.33513 38121 ft 424 kts 238°
2026-05-07 14:20 21.19367 -51.38866 38122 ft 425 kts 238°
2026-05-07 14:21 21.16228 -51.44194 38121 ft 424 kts 238°
2026-05-07 14:21 21.12560 -51.50415 38123 ft 424 kts 238°
2026-05-07 14:22 21.09422 -51.55733 38126 ft 424 kts 238°
2026-05-07 14:22 21.06272 -51.61067 38123 ft 423 kts 238°
2026-05-07 14:23 21.03140 -51.66369 38125 ft 423 kts 237°
2026-05-07 14:23 21.00000 -51.71677 38120 ft 423 kts 238°
2026-05-07 14:24 20.96861 -51.76982 38124 ft 423 kts 237°
2026-05-07 14:24 20.93710 -51.82298 38124 ft 423 kts 238°
2026-05-07 14:25 20.90575 -51.87583 38122 ft 422 kts 237°
2026-05-07 14:25 20.87431 -51.92876 38124 ft 423 kts 237°
2026-05-07 14:26 20.84273 -51.98187 38122 ft 423 kts 237°
2026-05-07 14:26 20.81126 -52.03479 38124 ft 423 kts 237°
2026-05-07 14:27 20.77981 -52.08760 38121 ft 422 kts 237°
2026-05-07 14:27 20.74828 -52.14048 38118 ft 423 kts 237°
2026-05-07 14:28 20.71673 -52.19337 38123 ft 422 kts 237°
2026-05-07 14:28 20.68523 -52.24610 38123 ft 422 kts 238°
2026-05-07 14:29 20.65377 -52.29872 38119 ft 421 kts 237°
2026-05-07 14:29 20.62223 -52.35144 38122 ft 421 kts 238°
2026-05-07 14:30 20.59078 -52.40397 38120 ft 421 kts 237°
2026-05-07 14:30 20.55938 -52.45637 38126 ft 421 kts 238°
2026-05-07 14:31 20.52778 -52.50904 38118 ft 420 kts 237°
2026-05-07 14:31 20.49622 -52.56160 38120 ft 421 kts 237°
2026-05-07 14:32 20.46459 -52.61421 38127 ft 422 kts 237°
2026-05-07 14:32 20.43298 -52.66676 38130 ft 422 kts 237°
2026-05-07 14:33 20.40126 -52.71943 38126 ft 421 kts 237°
2026-05-07 14:33 20.36974 -52.77174 38122 ft 421 kts 237°
2026-05-07 14:34 20.33822 -52.82396 38122 ft 421 kts 237°
2026-05-07 14:34 20.30658 -52.87637 38122 ft 420 kts 237°
2026-05-07 14:35 20.27507 -52.92852 38123 ft 420 kts 237°
2026-05-07 14:35 20.24356 -52.98063 38123 ft 420 kts 237°
2026-05-07 14:36 20.21722 -53.02413 38120 ft 419 kts 237°
2026-05-07 14:36 20.18046 -53.08481 38120 ft 419 kts 237°
2026-05-07 14:37 20.14950 -53.13585 38118 ft 420 kts 237°
2026-05-07 14:37 20.10203 -53.21407 38121 ft 420 kts 237°
2026-05-07 14:38 20.07026 -53.26631 38121 ft 421 kts 237°
2026-05-07 14:38 20.03857 -53.31843 38120 ft 421 kts 237°
2026-05-07 14:39 20.00692 -53.37038 38120 ft 419 kts 237°
2026-05-07 14:39 19.97516 -53.42245 38120 ft 419 kts 237°
2026-05-07 14:40 19.94361 -53.47422 38119 ft 418 kts 237°
2026-05-07 14:40 19.91200 -53.52598 38118 ft 419 kts 237°
2026-05-07 14:41 19.88041 -53.57768 38116 ft 419 kts 237°
2026-05-07 14:41 19.84868 -53.62955 38116 ft 419 kts 237°
2026-05-07 14:42 19.81702 -53.68129 38118 ft 419 kts 237°
2026-05-07 14:42 19.78535 -53.73298 38116 ft 419 kts 237°
2026-05-07 14:43 19.75347 -53.78494 38115 ft 419 kts 237°
2026-05-07 14:43 19.72174 -53.83665 38114 ft 420 kts 237°
2026-05-07 14:44 19.69001 -53.88832 38112 ft 419 kts 236°
2026-05-07 14:44 19.65826 -53.93995 38116 ft 420 kts 236°
2026-05-07 14:45 19.62638 -53.99177 38122 ft 418 kts 237°
2026-05-07 14:45 19.59470 -54.04321 38119 ft 418 kts 237°
2026-05-07 14:46 19.56304 -54.09457 38113 ft 418 kts 237°
2026-05-07 14:46 19.53122 -54.14616 38147 ft 419 kts 237°
2026-05-07 14:47 19.51531 -54.17195 38369 ft 419 kts 237°
2026-05-07 14:47 19.49946 -54.19758 38686 ft 417 kts 237°
2026-05-07 14:47 19.48364 -54.22319 39005 ft 416 kts 237°
2026-05-07 14:47 19.46786 -54.24874 39107 ft 416 kts 237°
2026-05-07 14:48 19.43635 -54.29973 39110 ft 415 kts 237°
2026-05-07 14:48 19.40463 -54.35097 39109 ft 415 kts 237°
2026-05-07 14:49 19.37306 -54.40191 39108 ft 415 kts 237°
2026-05-07 14:49 19.34146 -54.45286 39110 ft 416 kts 237°
2026-05-07 14:50 19.30975 -54.50396 39106 ft 415 kts 237°
2026-05-07 14:50 19.27809 -54.55490 39105 ft 415 kts 237°
2026-05-07 14:51 19.24648 -54.60575 39105 ft 415 kts 237°
2026-05-07 14:51 19.21484 -54.65660 39106 ft 415 kts 237°
2026-05-07 14:52 19.18310 -54.70755 39105 ft 415 kts 237°
2026-05-07 14:52 19.15145 -54.75830 39104 ft 415 kts 237°
2026-05-07 14:53 19.11978 -54.80905 39101 ft 415 kts 236°
2026-05-07 14:53 19.08800 -54.85989 39101 ft 414 kts 237°
2026-05-07 14:54 19.05633 -54.91048 39098 ft 414 kts 237°
2026-05-07 14:54 19.02465 -54.96109 39095 ft 414 kts 237°
2026-05-07 14:55 18.99441 -55.01297 39102 ft 415 kts 241°
2026-05-07 14:55 18.96777 -55.06676 39100 ft 414 kts 242°
2026-05-07 14:56 18.94127 -55.12055 39100 ft 414 kts 242°
2026-05-07 14:56 18.91473 -55.17437 39100 ft 414 kts 242°
2026-05-07 14:57 18.88814 -55.22827 39101 ft 414 kts 242°
2026-05-07 14:57 18.86163 -55.28194 39100 ft 414 kts 242°
2026-05-07 14:58 18.83508 -55.33564 39100 ft 414 kts 242°
2026-05-07 14:58 18.80847 -55.38942 39100 ft 415 kts 242°
2026-05-07 14:59 18.78179 -55.44329 39100 ft 414 kts 242°
2026-05-07 14:59 18.75517 -55.49700 39100 ft 415 kts 242°
2026-05-07 15:00 18.72850 -55.55076 39100 ft 415 kts 242°
2026-05-07 15:00 18.70172 -55.60468 39100 ft 415 kts 242°
2026-05-07 15:01 18.67502 -55.65840 39102 ft 415 kts 242°
2026-05-07 15:01 18.64829 -55.71212 39101 ft 414 kts 242°
2026-05-07 15:02 18.62165 -55.76565 39100 ft 413 kts 242°
2026-05-07 15:02 18.59493 -55.81930 39100 ft 413 kts 242°
2026-05-07 15:03 18.56832 -55.87264 39104 ft 413 kts 242°
2026-05-07 15:03 18.54171 -55.92594 39111 ft 413 kts 242°
2026-05-07 15:04 18.51501 -55.97937 39111 ft 412 kts 242°
2026-05-07 15:04 18.48838 -56.03261 39112 ft 412 kts 242°
2026-05-07 15:05 18.46176 -56.08582 39115 ft 412 kts 242°
2026-05-07 15:05 18.43510 -56.13903 39111 ft 413 kts 242°
2026-05-07 15:06 18.40829 -56.19247 39112 ft 412 kts 242°
2026-05-07 15:06 18.38161 -56.24563 39112 ft 412 kts 242°
2026-05-07 15:07 18.35485 -56.29891 39100 ft 413 kts 242°
2026-05-07 15:07 18.32793 -56.35245 39094 ft 414 kts 242°
2026-05-07 15:08 18.30113 -56.40570 39094 ft 414 kts 242°
2026-05-07 15:08 18.27428 -56.45904 39100 ft 414 kts 242°
2026-05-07 15:09 18.24743 -56.51231 39103 ft 414 kts 242°
2026-05-07 15:09 18.22048 -56.56573 39100 ft 414 kts 242°
2026-05-07 15:10 18.19359 -56.61893 39098 ft 413 kts 242°
2026-05-07 15:10 18.16674 -56.67206 39098 ft 413 kts 242°
2026-05-07 15:11 18.13979 -56.72531 39105 ft 412 kts 242°
2026-05-07 15:11 18.11291 -56.77834 39097 ft 413 kts 242°
2026-05-07 15:12 18.08605 -56.83129 39096 ft 412 kts 242°
2026-05-07 15:12 18.05913 -56.88424 39100 ft 412 kts 242°
2026-05-07 15:13 18.03213 -56.93740 39096 ft 412 kts 242°
2026-05-07 15:13 18.00396 -56.98985 39102 ft 413 kts 238°
2026-05-07 15:14 17.97130 -57.03940 39096 ft 414 kts 233°
2026-05-07 15:14 17.93613 -57.08731 39100 ft 414 kts 233°
2026-05-07 15:15 17.90100 -57.13504 39098 ft 414 kts 233°
2026-05-07 15:15 17.86587 -57.18267 39100 ft 414 kts 233°
2026-05-07 15:16 17.83068 -57.23033 39096 ft 414 kts 234°
2026-05-07 15:16 17.79534 -57.27816 39098 ft 414 kts 233°
2026-05-07 15:17 17.76010 -57.32579 39098 ft 414 kts 233°
2026-05-07 15:17 17.72477 -57.37344 39094 ft 414 kts 233°
2026-05-07 15:18 17.68928 -57.42128 39100 ft 414 kts 233°
2026-05-07 15:18 17.65394 -57.46897 39098 ft 414 kts 234°
2026-05-07 15:19 17.62124 -57.51844 39095 ft 415 kts 238°
2026-05-07 15:19 17.58972 -57.56890 39098 ft 415 kts 238°
2026-05-07 15:20 17.55802 -57.61954 39097 ft 415 kts 238°
2026-05-07 15:20 17.52639 -57.67000 39098 ft 416 kts 237°
2026-05-07 15:21 17.49473 -57.72045 39098 ft 416 kts 237°
2026-05-07 15:21 17.46292 -57.77115 39099 ft 416 kts 237°
2026-05-07 15:22 17.43119 -57.82164 39101 ft 415 kts 237°
2026-05-07 15:22 17.39955 -57.87197 39101 ft 415 kts 237°
2026-05-07 15:23 17.36788 -57.92229 39097 ft 415 kts 237°
2026-05-07 15:23 17.33608 -57.97278 39104 ft 414 kts 237°
2026-05-07 15:24 17.30437 -58.02309 39101 ft 415 kts 237°
2026-05-07 15:24 17.27272 -58.07325 39098 ft 414 kts 237°
2026-05-07 15:25 17.24109 -58.12336 39097 ft 414 kts 238°
2026-05-07 15:25 17.20929 -58.17371 39098 ft 415 kts 238°
2026-05-07 15:26 17.17747 -58.22405 39099 ft 417 kts 238°
2026-05-07 15:26 17.14561 -58.27445 39096 ft 417 kts 237°
2026-05-07 15:27 17.11375 -58.32477 39099 ft 417 kts 238°
2026-05-07 15:27 17.08176 -58.37527 39097 ft 416 kts 237°
2026-05-07 15:28 17.04985 -58.42559 39097 ft 416 kts 237°
2026-05-07 15:28 17.01796 -58.47586 39098 ft 416 kts 238°
2026-05-07 15:29 16.98589 -58.52635 39100 ft 417 kts 238°
2026-05-07 15:29 16.95398 -58.57661 39099 ft 417 kts 238°
2026-05-07 15:30 16.92194 -58.62701 39099 ft 418 kts 238°
2026-05-07 15:30 16.88989 -58.67739 39103 ft 419 kts 238°
2026-05-07 15:31 16.85762 -58.72809 39100 ft 418 kts 238°
2026-05-07 15:31 16.82541 -58.77864 39098 ft 418 kts 238°
2026-05-07 15:32 16.79327 -58.82907 39097 ft 419 kts 237°
2026-05-07 15:32 16.76095 -58.87970 39096 ft 419 kts 238°
2026-05-07 15:33 16.72874 -58.93017 39094 ft 418 kts 237°
2026-05-07 15:33 16.69664 -58.98039 39093 ft 417 kts 238°
2026-05-07 15:34 16.66448 -59.03066 39094 ft 418 kts 238°
2026-05-07 15:34 16.63218 -59.08116 39094 ft 419 kts 238°
2026-05-07 15:35 16.59994 -59.13153 39088 ft 419 kts 238°
2026-05-07 15:35 16.56768 -59.18188 39087 ft 419 kts 238°
2026-05-07 15:36 16.53526 -59.23243 39081 ft 420 kts 238°
2026-05-07 15:36 16.50291 -59.28282 39081 ft 420 kts 238°
2026-05-07 15:37 16.47052 -59.33327 39082 ft 420 kts 238°
2026-05-07 15:37 16.43817 -59.38362 39086 ft 420 kts 238°
2026-05-07 15:38 16.40564 -59.43419 39085 ft 420 kts 238°
2026-05-07 15:38 16.37327 -59.48446 39086 ft 419 kts 238°
2026-05-07 15:39 16.34097 -59.53462 39083 ft 418 kts 238°
2026-05-07 15:39 16.30859 -59.58487 39081 ft 418 kts 238°
2026-05-07 15:40 16.29246 -59.60986 38859 ft 419 kts 238°
2026-05-07 15:40 16.27623 -59.63501 38529 ft 419 kts 238°
2026-05-07 15:40 16.26005 -59.66009 38108 ft 421 kts 237°
2026-05-07 15:40 16.24374 -59.68536 37561 ft 422 kts 237°
2026-05-07 15:41 16.22728 -59.71083 36954 ft 424 kts 237°
2026-05-07 15:41 16.21080 -59.73632 36281 ft 427 kts 237°
2026-05-07 15:41 16.19407 -59.76219 35548 ft 429 kts 237°
2026-05-07 15:41 16.17734 -59.78807 34864 ft 431 kts 237°
2026-05-07 15:42 16.16055 -59.81400 34148 ft 435 kts 237°
2026-05-07 15:42 16.14363 -59.84012 33382 ft 439 kts 237°
2026-05-07 15:42 16.12660 -59.86639 32625 ft 443 kts 237°
2026-05-07 15:42 16.10937 -59.89300 31898 ft 447 kts 237°
2026-05-07 15:43 16.09199 -59.91980 31167 ft 451 kts 237°
2026-05-07 15:43 16.07433 -59.94704 30445 ft 455 kts 237°
2026-05-07 15:43 16.05663 -59.97430 29697 ft 460 kts 237°
2026-05-07 15:43 16.03880 -60.00178 29081 ft 462 kts 236°
2026-05-07 15:44 16.02102 -60.02914 28697 ft 455 kts 237°
2026-05-07 15:44 16.00350 -60.05606 28282 ft 448 kts 237°
2026-05-07 15:44 15.98620 -60.08266 27896 ft 442 kts 237°
2026-05-07 15:44 15.96913 -60.10891 27497 ft 437 kts 237°
2026-05-07 15:45 15.95218 -60.13498 26998 ft 434 kts 237°
2026-05-07 15:45 15.93538 -60.16083 26478 ft 431 kts 237°
2026-05-07 15:45 15.91789 -60.18583 25948 ft 430 kts 233°
2026-05-07 15:45 15.89900 -60.20975 25426 ft 428 kts 230°
2026-05-07 15:46 15.85778 -60.25430 24380 ft 425 kts 227°
2026-05-07 15:46 15.83692 -60.27586 23873 ft 423 kts 226°
2026-05-07 15:46 15.81599 -60.29747 23353 ft 422 kts 226°
2026-05-07 15:47 15.79525 -60.31885 22837 ft 420 kts 226°
2026-05-07 15:47 15.77464 -60.34013 22345 ft 419 kts 226°
2026-05-07 15:47 15.75410 -60.36134 21871 ft 417 kts 227°
2026-05-07 15:47 15.73363 -60.38246 21392 ft 416 kts 227°
2026-05-07 15:48 15.71324 -60.40354 20924 ft 414 kts 226°
2026-05-07 15:48 15.69278 -60.42464 20457 ft 412 kts 227°
2026-05-07 15:48 15.67251 -60.44554 19987 ft 411 kts 226°
2026-05-07 15:48 15.65239 -60.46632 19526 ft 409 kts 226°
2026-05-07 15:49 15.63230 -60.48703 19064 ft 407 kts 226°
2026-05-07 15:49 15.61224 -60.50770 18608 ft 406 kts 226°
2026-05-07 15:49 15.59229 -60.52824 18197 ft 403 kts 226°
2026-05-07 15:49 15.57241 -60.54871 17956 ft 401 kts 226°
2026-05-07 15:50 15.55252 -60.56920 17529 ft 400 kts 226°
2026-05-07 15:50 15.53284 -60.58948 17032 ft 400 kts 226°
2026-05-07 15:50 15.51320 -60.60969 16591 ft 398 kts 226°
2026-05-07 15:50 15.49368 -60.62976 16169 ft 396 kts 226°
2026-05-07 15:51 15.47428 -60.64973 15851 ft 390 kts 226°
2026-05-07 15:51 15.45521 -60.66934 15538 ft 385 kts 226°
2026-05-07 15:51 15.43634 -60.68874 15231 ft 380 kts 225°
2026-05-07 15:51 15.41763 -60.70797 14933 ft 375 kts 226°
2026-05-07 15:52 15.39924 -60.72687 14642 ft 370 kts 225°
2026-05-07 15:52 15.38112 -60.74549 14356 ft 365 kts 225°
2026-05-07 15:52 15.36322 -60.76388 14071 ft 361 kts 225°
2026-05-07 15:52 15.34547 -60.78211 13731 ft 358 kts 226°
2026-05-07 15:53 15.32783 -60.80022 13365 ft 357 kts 225°
2026-05-07 15:53 15.31027 -60.81825 13012 ft 355 kts 225°
2026-05-07 15:53 15.29270 -60.83626 12658 ft 353 kts 226°
2026-05-07 15:53 15.27532 -60.85408 12305 ft 352 kts 226°
2026-05-07 15:54 15.25804 -60.87182 11963 ft 350 kts 225°
2026-05-07 15:54 15.24084 -60.88946 11627 ft 348 kts 225°
2026-05-07 15:54 15.22371 -60.90701 11292 ft 346 kts 225°
2026-05-07 15:54 15.20670 -60.92444 10955 ft 344 kts 225°
2026-05-07 15:55 15.18985 -60.94170 10726 ft 339 kts 225°
2026-05-07 15:55 15.17317 -60.95877 10496 ft 333 kts 225°
2026-05-07 15:55 15.15684 -60.97551 10269 ft 329 kts 225°
2026-05-07 15:55 15.14076 -60.99196 10114 ft 321 kts 225°
2026-05-07 15:56 15.12510 -61.00799 9970 ft 315 kts 225°
2026-05-07 15:56 15.10968 -61.02378 9761 ft 310 kts 225°
2026-05-07 15:56 15.09446 -61.03937 9554 ft 306 kts 225°
2026-05-07 15:56 15.07945 -61.05474 9352 ft 302 kts 225°
2026-05-07 15:57 15.06450 -61.07004 9132 ft 299 kts 225°
2026-05-07 15:57 15.04974 -61.08513 8872 ft 298 kts 225°
2026-05-07 15:57 15.03506 -61.10014 8594 ft 297 kts 225°
2026-05-07 15:57 15.02043 -61.11510 8342 ft 296 kts 225°
2026-05-07 15:58 15.00586 -61.12998 8091 ft 294 kts 225°
2026-05-07 15:58 14.99133 -61.14483 7863 ft 292 kts 225°
2026-05-07 15:58 14.97702 -61.15945 7674 ft 288 kts 225°
2026-05-07 15:58 14.96278 -61.17398 7491 ft 284 kts 225°
2026-05-07 15:59 14.94881 -61.18824 7316 ft 280 kts 225°
2026-05-07 15:59 14.93505 -61.20227 7143 ft 277 kts 226°
2026-05-07 15:59 14.92148 -61.21611 6977 ft 273 kts 225°
2026-05-07 15:59 14.90808 -61.22978 6810 ft 269 kts 225°
2026-05-07 16:00 14.89487 -61.24326 6626 ft 265 kts 225°
2026-05-07 16:00 14.88187 -61.25653 6427 ft 261 kts 225°
2026-05-07 16:00 14.86896 -61.26970 6225 ft 257 kts 225°
2026-05-07 16:00 14.85636 -61.28257 5890 ft 253 kts 225°
2026-05-07 16:01 14.84318 -61.29405 5545 ft 246 kts 206°
2026-05-07 16:01 14.82708 -61.29874 5182 ft 239 kts 178°
2026-05-07 16:01 14.81106 -61.29592 4845 ft 231 kts 160°
2026-05-07 16:01 14.79602 -61.29055 4521 ft 227 kts 158°
2026-05-07 16:02 14.78129 -61.28512 4203 ft 223 kts 158°
2026-05-07 16:02 14.76677 -61.27984 3911 ft 218 kts 159°
2026-05-07 16:02 14.75255 -61.27479 3714 ft 214 kts 159°
2026-05-07 16:02 14.73855 -61.26984 3516 ft 211 kts 159°
2026-05-07 16:03 14.72483 -61.26504 3322 ft 207 kts 159°
2026-05-07 16:03 14.71131 -61.26033 3115 ft 203 kts 158°
2026-05-07 16:03 14.69806 -61.25571 2921 ft 200 kts 158°
2026-05-07 16:03 14.68501 -61.25118 2733 ft 196 kts 158°
2026-05-07 16:04 14.67209 -61.24668 2548 ft 193 kts 158°
2026-05-07 16:04 14.65949 -61.24230 2429 ft 190 kts 158°
2026-05-07 16:04 14.64690 -61.23790 2382 ft 191 kts 158°
2026-05-07 16:04 14.63429 -61.23350 2343 ft 191 kts 158°
2026-05-07 16:05 14.62166 -61.22913 2314 ft 191 kts 158°
2026-05-07 16:05 14.60915 -61.22478 2263 ft 186 kts 158°
2026-05-07 16:05 14.59727 -61.22070 2231 ft 173 kts 158°
2026-05-07 16:05 14.58600 -61.21682 2227 ft 169 kts 157°
2026-05-07 16:06 14.57476 -61.21291 2199 ft 171 kts 158°
2026-05-07 16:06 14.56397 -61.20819 2082 ft 165 kts 135°
2026-05-07 16:06 14.55881 -61.19850 1978 ft 154 kts 95°
2026-05-07 16:06 14.55909 -61.18754 1989 ft 153 kts 81°
2026-05-07 16:07 14.56089 -61.17672 1977 ft 153 kts 77°
2026-05-07 16:07 14.56296 -61.16595 1972 ft 154 kts 77°
2026-05-07 16:07 14.56500 -61.15505 1974 ft 154 kts 77°
2026-05-07 16:07 14.56695 -61.14419 1970 ft 155 kts 78°
2026-05-07 16:08 14.56883 -61.13330 1979 ft 155 kts 78°
2026-05-07 16:08 14.57068 -61.12244 1938 ft 155 kts 78°
2026-05-07 16:08 14.57251 -61.11169 1739 ft 149 kts 78°
2026-05-07 16:08 14.57426 -61.10144 1545 ft 142 kts 78°
2026-05-07 16:09 14.57597 -61.09143 1377 ft 142 kts 77°
2026-05-07 16:09 14.57767 -61.08143 1213 ft 143 kts 78°
2026-05-07 16:09 14.57940 -61.07130 1040 ft 145 kts 79°
2026-05-07 16:09 14.58113 -61.06114 860 ft 144 kts 78°
2026-05-07 16:10 14.58285 -61.05106 675 ft 144 kts 76°
2026-05-07 16:10 14.58462 -61.04090 497 ft 146 kts 78°
2026-05-07 16:10 14.58638 -61.03045 313 ft 151 kts 76°
2026-05-07 16:10 14.58825 -61.01980 121 ft 149 kts 75°
2026-05-07 16:11 14.58993 -61.00974 53 ft 122 kts 77°
2026-05-07 16:11 14.59086 -61.00407 50 ft 55 kts 78°
2026-05-07 16:11 14.59149 -61.00064 51 ft 42 kts 80°
2026-05-07 16:11 14.59187 -60.99833 52 ft 24 kts 80°
2026-05-07 16:12 14.59206 -60.99716 54 ft 11 kts 79°
2026-05-07 16:12 14.59224 -60.99674 54 ft 5 kts 37°
2026-05-07 16:12 14.59264 -60.99663 54 ft 7 kts
2026-05-07 16:12 14.59314 -60.99666 54 ft 8 kts 353°
2026-05-07 16:13 14.59371 -60.99679 54 ft 9 kts 332°
2026-05-07 16:13 14.59397 -60.99738 53 ft 11 kts 263°
2026-05-07 16:13 14.59381 -60.99829 51 ft 14 kts 259°
2026-05-07 16:13 14.59373 -60.99889 50 ft 6 kts 282°
2026-05-07 16:14 14.59399 -60.99901 50 ft 5 kts 354°
2026-05-07 16:14 14.59422 -60.99904 52 ft 2 kts 352°
2026-05-07 16:14 14.59448 -60.99909 52 ft 0 kts 350°